WD9GET Weather Reports


time (UTC)temp
C
wind
direction
speed
KPH
gust
KPH
rain 1hr
cm
rain 24hr
cm
rain mn
cm
humidity
%
barometer
mb
20260510142733 26 22 3.2 9.7 0.00 0.00 0.00 90 1013.9
20260510142620 26 343 3.2 9.7 0.00 0.00 0.00 90 1013.9
20260510142520 26 55 3.2 9.7 0.00 0.00 0.00 90 1013.9
20260510142440 26 61 3.2 9.7 0.00 0.00 0.00 90 1013.9
20260510142416 26 58 3.2 9.7 0.00 0.00 0.00 90 1013.9
20260510142314 26 18 3.2 9.7 0.00 0.00 0.00 90 1013.9
20260510142207 26 77 3.2 6.4 0.00 0.00 0.00 90 1014.0
20260510142108 26 256 3.2 8.0 0.00 0.00 0.00 90 1014.0
20260510142002 26 17 3.2 8.0 0.00 0.00 0.00 90 1014.0
20260510141936 26 355 3.2 8.0 0.00 0.00 0.00 90 1014.0
20260510141902 26 44 3.2 8.0 0.00 0.00 0.00 90 1014.0
20260510141802 26 41 3.2 8.0 0.00 0.00 0.00 90 1014.0
20260510141702 26 53 4.8 8.0 0.00 0.00 0.00 89 1014.0
20260510141654 26 42 4.8 9.7 0.00 0.00 0.00 89 1014.0
20260510141556 26 17 4.8 8.0 0.00 0.00 0.00 89 1014.0
20260510141542 26 58 4.8 9.7 0.00 0.00 0.00 89 1014.0
20260510141353 26 44 4.8 9.7 0.00 0.00 0.00 88 1013.9
20260510141253 26 49 4.8 9.7 0.00 0.00 0.00 88 1013.9
20260510141155 26 12 3.2 9.7 0.00 0.00 0.00 87 1013.8
20260510141150 26 346 4.8 9.7 0.00 0.00 0.00 87 1013.8
20260510141050 26 16 4.8 9.7 0.00 0.00 0.00 87 1013.8
20260510141036 26 15 3.2 9.7 0.00 0.00 0.00 87 1013.8
20260510140847 26 56 3.2 9.7 0.00 0.00 0.00 87 1013.8
20260510140744 26 17 3.2 9.7 0.00 0.00 0.00 87 1013.8
20260510140640 26 72 3.2 9.7 0.00 0.00 0.00 87 1013.8
20260510140542 26 45 3.2 9.7 0.00 0.00 0.00 88 1013.8
20260510140441 26 30 3.2 11.3 0.00 0.00 0.00 88 1013.8
20260510140431 26 4 3.2 11.3 0.00 0.00 0.00 88 1013.8
20260510140341 26 40 4.8 12.9 0.00 0.00 0.00 88 1013.8
20260510140238 26 11 4.8 12.9 0.00 0.00 0.00 89 1013.7
20260510140139 26 94 4.8 12.9 0.00 0.00 0.00 89 1013.7
20260510140032 26 120 4.8 12.9 0.00 0.00 0.00 89 1013.7
20260510135932 26 56 4.8 12.9 0.00 0.00 0.00 89 1013.7
20260510135820 26 32 4.8 12.9 0.00 0.00 0.00 90 1013.7
20260510135720 26 30 6.4 12.9 0.00 0.00 0.00 90 1013.7
20260510135620 26 267 6.4 12.9 0.00 0.00 0.00 90 1013.7
20260510135520 26 41 6.4 12.9 0.00 0.00 0.00 90 1013.7
20260510135421 26 39 4.8 12.9 0.00 0.00 0.00 90 1013.6
20260510135326 25 5 4.8 9.7 0.00 0.00 0.00 92 1013.6
20260510135220 25 12 4.8 9.7 0.00 0.00 0.00 92 1013.6
20260510135120 25 9 4.8 9.7 0.00 0.00 0.00 92 1013.6
20260510135020 25 43 4.8 9.7 0.00 0.00 0.00 92 1013.6
20260510134919 25 355 4.8 9.7 0.00 0.00 0.00 92 1013.6
20260510134905 25 92 4.8 9.7 0.00 0.00 0.00 92 1013.6
20260510134754 25 21 6.4 9.7 0.00 0.00 0.00 92 1013.6
20260510134653 25 23 6.4 9.7 0.00 0.00 0.00 92 1013.6
20260510134553 25 13 6.4 9.7 0.00 0.00 0.00 92 1013.6
20260510134453 25 13 4.8 9.7 0.00 0.00 0.00 92 1013.6
20260510134410 25 36 6.4 9.7 0.00 0.00 0.00 92 1013.6
20260510134353 25 9 6.4 9.7 0.00 0.00 0.00 92 1013.6
20260510134254 25 11 4.8 9.7 0.00 0.00 0.00 93 1013.5
20260510134141 25 11 4.8 9.7 0.00 0.00 0.00 93 1013.5
20260510134041 25 11 4.8 9.7 0.00 0.00 0.00 93 1013.5
20260510133942 25 20 4.8 9.7 0.00 0.00 0.00 93 1013.5
20260510133910 25 67 4.8 9.7 0.00 0.00 0.00 93 1013.5
20260510133842 25 16 4.8 8.0 0.00 0.00 0.00 93 1013.5
20260510133724 25 13 4.8 8.0 0.00 0.00 0.00 93 1013.5
20260510133624 25 43 3.2 8.0 0.00 0.00 0.00 93 1013.5
20260510133512 25 38 3.2 8.0 0.00 0.00 0.00 94 1013.4
20260510133405 25 15 3.2 6.4 0.00 0.00 0.00 94 1013.4
20260510133304 25 27 3.2 6.4 0.00 0.00 0.00 94 1013.3
20260510133150 25 30 3.2 6.4 0.00 0.00 0.00 95 1013.3
20260510133036 25 7 1.6 4.8 0.00 0.00 0.00 95 1013.3
20260510132936 25 62 1.6 4.8 0.00 0.00 0.00 95 1013.3
20260510132904 25 36 1.6 4.8 0.00 0.00 0.00 95 1013.3
20260510132835 25 2 1.6 3.2 0.00 0.00 0.00 95 1013.2
20260510132706 25 5 1.6 3.2 0.00 0.00 0.00 95 1013.2
20260510132606 25 21 1.6 3.2 0.00 0.00 0.00 95 1013.2
20260510132506 25 334 1.6 3.2 0.00 0.00 0.00 95 1013.2
20260510132406 25 20 1.6 3.2 0.00 0.00 0.00 95 1013.2
20260510132306 25 117 1.6 3.2 0.00 0.00 0.00 95 1013.1
20260510132135 25 320 1.6 3.2 0.00 0.00 0.00 96 1013.1
20260510132036 25 144 1.6 3.2 0.00 0.00 0.00 96 1013.1
20260510131936 25 285 1.6 3.2 0.00 0.00 0.00 96 1013.0
20260510131905 25 335 1.6 3.2 0.00 0.00 0.00 96 1013.0
20260510131836 25 7 1.6 3.2 0.00 0.00 0.00 96 1013.0
20260510131735 25 43 1.6 4.8 0.00 0.00 0.00 96 1012.9
20260510131620 25 18 1.6 4.8 0.00 0.00 0.00 96 1012.9
20260510131451 25 346 1.6 4.8 0.00 0.00 0.00 96 1012.9
20260510131403 25 29 1.6 4.8 0.00 0.00 0.00 96 1012.8
20260510131351 25 29 1.6 4.8 0.00 0.00 0.00 96 1012.8
20260510131235 25 63 1.6 4.8 0.00 0.00 0.00 96 1012.8
20260510131121 24 359 1.6 4.8 0.00 0.00 0.00 96 1012.8
20260510131004 24 348 1.6 4.8 0.00 0.00 0.00 96 1012.7
20260510130904 24 11 3.2 6.4 0.00 0.00 0.00 96 1012.7
20260510130736 24 34 1.6 6.4 0.00 0.00 0.00 97 1012.6
20260510130621 24 87 1.6 6.4 0.00 0.00 0.00 97 1012.6
20260510130520 24 96 3.2 6.4 0.00 0.00 0.00 97 1012.6
20260510130350 24 69 3.2 6.4 0.00 0.00 0.00 97 1012.6
20260510130251 24 230 3.2 6.4 0.00 0.00 0.00 97 1012.6
20260510130151 24 50 3.2 6.4 0.00 0.00 0.00 97 1012.6
20260510130051 24 82 3.2 6.4 0.00 0.00 0.00 97 1012.6
20260510125951 24 24 3.2 6.4 0.00 0.00 0.00 97 1012.6
20260510125851 24 11 1.6 3.2 0.00 0.00 0.00 97 1012.6
20260510125750 24 348 1.6 3.2 0.00 0.00 0.00 97 1012.5
20260510125652 24 353 1.6 3.2 0.00 0.00 0.00 97 1012.5
20260510125521 24 3 1.6 3.2 0.00 0.00 0.00 97 1012.5
20260510125406 24 350 1.6 3.2 0.00 0.00 0.00 97 1012.5
20260510125335 24 355 1.6 3.2 0.00 0.00 0.00 97 1012.5
20260510125307 24 7 1.6 3.2 0.00 0.00 0.00 97 1012.5
20260510125205 24 359 1.6 3.2 0.00 0.00 0.00 97 1012.4
20260510125104 24 15 1.6 3.2 0.00 0.00 0.00 97 1012.4
20260510124950 24 0 1.6 3.2 0.00 0.00 0.00 97 1012.3
20260510124836 24 0 1.6 3.2 0.00 0.00 0.00 97 1012.3
20260510124651 24 5 1.6 3.2 0.00 0.00 0.00 97 1012.3
20260510124551 24 14 1.6 3.2 0.00 0.00 0.00 97 1012.3
20260510124451 24 15 1.6 3.2 0.00 0.00 0.00 97 1012.1
20260510124350 24 341 1.6 3.2 0.00 0.00 0.00 97 1012.1
20260510124251 24 0 1.6 4.8 0.00 0.00 0.00 97 1012.1
20260510124136 24 116 1.6 4.8 0.00 0.00 0.00 97 1012.1
20260510124021 24 98 1.6 4.8 0.00 0.00 0.00 97 1012.1
20260510123921 24 72 1.6 4.8 0.00 0.00 0.00 97 1012.1
20260510123821 24 51 3.2 4.8 0.00 0.00 0.00 97 1012.1
20260510123750 24 80 3.2 4.8 0.00 0.00 0.00 97 1012.0
20260510123721 24 76 3.2 4.8 0.00 0.00 0.00 97 1012.0
20260510123606 24 93 3.2 4.8 0.00 0.00 0.00 97 1012.0
20260510123506 24 119 1.6 4.8 0.00 0.00 0.00 97 1012.0
20260510123407 24 89 1.6 4.8 0.00 0.00 0.00 97 1012.0
20260510123306 24 116 1.6 4.8 0.00 0.00 0.00 97 1012.0
20260510123236 24 91 1.6 4.8 0.00 0.00 0.00 97 1012.0
20260510123206 24 71 1.6 4.8 0.00 0.00 0.00 97 1012.0
20260510123051 24 51 1.6 3.2 0.00 0.00 0.00 97 1012.0
20260510122936 24 12 1.6 3.2 0.00 0.00 0.00 97 1011.9
20260510122807 24 105 1.6 3.2 0.00 0.00 0.00 97 1011.9
20260510122735 24 306 1.6 3.2 0.00 0.00 0.00 97 1011.9
20260510122705 24 93 1.6 3.2 0.00 0.00 0.00 97 1011.9
20260510122605 24 94 1.6 3.2 0.00 0.00 0.00 97 1011.9
20260510122505 24 182 1.6 3.2 0.00 0.00 0.00 97 1011.8
20260510122406 24 207 0.0 3.2 0.00 0.00 0.00 97 1011.8
20260510122306 24 90 0.0 3.2 0.00 0.00 0.00 97 1011.8
20260510122209 24 250 0.0 3.2 0.00 0.00 0.00 97 1011.8
20260510122205 24 256 0.0 3.2 0.00 0.00 0.00 97 1011.8
20260510122105 24 59 0.0 3.2 0.00 0.00 0.00 97 1011.8
20260510122005 24 78 0.0 3.2 0.00 0.00 0.00 98 1011.8
20260510121906 24 78 0.0 3.2 0.00 0.00 0.00 97 1011.8
20260510121805 24 0 1.6 3.2 0.00 0.00 0.00 97 1011.8
20260510121710 24 0 1.6 3.2 0.00 0.00 0.00 97 1011.8
20260510121706 24 177 1.6 3.2 0.00 0.00 0.00 98 1011.8
20260510121605 24 104 1.6 3.2 0.00 0.00 0.00 98 1011.8
20260510121421 24 0 1.6 3.2 0.00 0.00 0.00 98 1011.8
20260510121322 24 165 1.6 3.2 0.00 0.00 0.00 98 1011.7
20260510121206 24 198 1.6 3.2 0.00 0.00 0.00 98 1011.7
20260510121121 24 127 1.6 3.2 0.00 0.00 0.00 98 1011.7
20260510121021 24 71 1.6 3.2 0.00 0.00 0.00 98 1011.7
20260510120907 24 114 1.6 3.2 0.00 0.00 0.00 98 1011.7
20260510120805 24 108 1.6 3.2 0.00 0.00 0.00 98 1011.7
20260510120705 24 0 1.6 3.2 0.00 0.00 0.00 98 1011.7
20260510120605 24 119 1.6 3.2 0.00 0.00 0.00 98 1011.7
20260510120506 24 96 1.6 3.2 0.00 0.00 0.00 98 1011.7
20260510120406 24 117 1.6 3.2 0.00 0.00 0.00 98 1011.7
20260510120237 24 133 1.6 3.2 0.00 0.00 0.00 98 1011.7
20260510120204 23 106 1.6 3.2 0.00 0.00 0.00 98 1011.7
20260510120136 23 106 1.6 3.2 0.00 0.00 0.00 98 1011.7
20260510120023 23 73 1.6 3.2 0.00 0.00 0.00 98 1011.7
20260510115922 23 104 1.6 3.2 0.00 0.00 0.00 98 1011.7
20260510115807 23 70 1.6 3.2 0.00 0.00 0.00 98 1011.7
20260510115706 23 132 1.6 3.2 0.00 0.00 0.00 98 1011.7
20260510115650 23 116 1.6 3.2 0.00 0.00 0.00 98 1011.6
20260510115607 23 0 1.6 3.2 0.00 0.00 0.00 98 1011.6
20260510115506 23 137 1.6 4.8 0.00 0.00 0.00 98 1011.6
20260510115352 23 170 1.6 4.8 0.00 0.00 0.00 98 1011.6
20260510115252 23 139 1.6 4.8 0.00 0.00 0.00 98 1011.6
20260510115152 23 157 3.2 4.8 0.00 0.00 0.00 98 1011.6
20260510115038 23 107 3.2 4.8 0.00 0.00 0.00 98 1011.6
20260510114937 23 104 3.2 4.8 0.00 0.00 0.00 98 1011.5
20260510114837 23 188 1.6 4.8 0.00 0.00 0.00 98 1011.5
20260510114737 23 128 1.6 4.8 0.00 0.00 0.00 98 1011.5
20260510114637 23 358 1.6 4.8 0.00 0.00 0.00 98 1011.4
20260510114542 23 103 1.6 4.8 0.00 0.00 0.00 98 1011.4
20260510114437 23 214 1.6 4.8 0.00 0.00 0.00 98 1011.4
20260510114337 23 79 1.6 4.8 0.00 0.00 0.00 98 1011.4
20260510114237 23 273 1.6 4.8 0.00 0.00 0.00 98 1011.4
20260510114122 23 98 1.6 4.8 0.00 0.00 0.00 98 1011.4
20260510114007 23 141 1.6 4.8 0.00 0.00 0.00 98 1011.3
20260510113907 23 103 1.6 4.8 0.00 0.00 0.00 98 1011.3
20260510113807 23 164 1.6 6.4 0.00 0.00 0.00 98 1011.3
20260510113707 23 111 1.6 6.4 0.00 0.00 0.00 98 1011.3
20260510113635 23 130 1.6 6.4 0.00 0.00 0.00 98 1011.3
20260510113606 23 187 1.6 6.4 0.00 0.00 0.00 98 1011.2
20260510113452 23 145 1.6 6.4 0.00 0.00 0.00 98 1011.2
20260510113337 23 95 3.2 6.4 0.00 0.00 0.00 98 1011.2
20260510113237 23 152 3.2 6.4 0.00 0.00 0.00 98 1011.2
20260510113136 23 295 3.2 6.4 0.00 0.00 0.00 98 1011.2
20260510113123 23 83 3.2 6.4 0.00 0.00 0.00 98 1011.2
20260510113022 23 189 1.6 6.4 0.00 0.00 0.00 98 1011.1
20260510112907 23 258 1.6 6.4 0.00 0.00 0.00 98 1011.1
20260510112856 23 156 1.6 4.8 0.00 0.00 0.00 98 1011.2
20260510112805 23 41 1.6 4.8 0.00 0.00 0.00 98 1011.1
20260510112742 23 199 1.6 4.8 0.00 0.00 0.00 98 1011.2
20260510112552 23 187 1.6 4.8 0.00 0.00 0.00 98 1011.2
20260510112438 23 213 1.6 4.8 0.00 0.00 0.00 98 1011.2
20260510112338 23 143 1.6 3.2 0.00 0.00 0.00 98 1011.1
20260510112237 23 76 1.6 4.8 0.00 0.00 0.00 98 1011.1
20260510112138 23 183 1.6 4.8 0.00 0.00 0.00 98 1011.1
20260510112035 23 132 1.6 4.8 0.00 0.00 0.00 98 1011.1
20260510111924 23 190 1.6 4.8 0.00 0.00 0.00 98 1011.1
20260510111823 23 161 1.6 4.8 0.00 0.00 0.00 98 1011.1
20260510111722 23 183 1.6 4.8 0.00 0.00 0.00 98 1011.1
20260510111622 23 148 1.6 4.8 0.00 0.00 0.00 98 1011.1
20260510111453 23 184 1.6 4.8 0.00 0.00 0.00 98 1011.1
20260510111337 23 138 1.6 4.8 0.00 0.00 0.00 98 1011.1
20260510111208 23 157 1.6 4.8 0.00 0.00 0.00 98 1011.0
20260510111108 23 119 1.6 4.8 0.00 0.00 0.00 98 1011.0
20260510111007 23 264 1.6 4.8 0.00 0.00 0.00 98 1011.0
20260510110837 23 175 1.6 4.8 0.00 0.00 0.00 98 1011.0
20260510110723 23 141 1.6 4.8 0.00 0.00 0.00 98 1010.9
20260510110623 23 190 1.6 4.8 0.00 0.00 0.00 98 1010.9
20260510110606 23 212 1.6 4.8 0.00 0.00 0.00 98 1010.9
20260510110522 23 212 1.6 4.8 0.00 0.00 0.00 98 1010.9
20260510110407 23 215 1.6 4.8 0.00 0.00 0.00 98 1010.9
20260510110306 23 145 1.6 4.8 0.00 0.00 0.00 98 1010.9
20260510110207 23 159 1.6 4.8 0.00 0.00 0.00 98 1010.9
20260510110107 23 147 1.6 3.2 0.00 0.00 0.00 98 1010.9
20260510110006 23 111 1.6 3.2 0.00 0.00 0.00 98 1010.9
20260510105853 23 183 1.6 3.2 0.00 0.00 0.00 98 1010.9
20260510105752 23 0 1.6 3.2 0.00 0.00 0.00 98 1010.9
20260510105653 23 185 1.6 3.2 0.00 0.00 0.00 98 1010.9
20260510105538 23 206 1.6 3.2 0.00 0.00 0.00 98 1010.9
20260510105423 23 132 1.6 3.2 0.00 0.00 0.00 98 1010.9
20260510105323 23 155 1.6 3.2 0.00 0.00 0.00 98 1010.8
20260510105223 23 209 1.6 3.2 0.00 0.00 0.00 98 1010.8
20260510105107 23 139 1.6 3.2 0.00 0.00 0.00 98 1010.8
20260510105037 23 70 1.6 3.2 0.00 0.00 0.00 98 1010.8
20260510105006 23 257 1.6 3.2 0.00 0.00 0.00 98 1010.7
20260510104905 23 199 1.6 4.8 0.00 0.00 0.00 98 1010.7
20260510104805 23 190 1.6 4.8 0.00 0.00 0.00 98 1010.7
20260510104705 23 83 1.6 4.8 0.00 0.00 0.00 98 1010.7
20260510104606 23 194 1.6 4.8 0.00 0.00 0.00 98 1010.7
20260510104537 23 194 1.6 4.8 0.00 0.00 0.00 98 1010.7
20260510104452 23 186 1.6 6.4 0.00 0.00 0.00 98 1010.7
20260510104352 23 200 1.6 6.4 0.00 0.00 0.00 98 1010.7
20260510104236 23 234 1.6 6.4 0.00 0.00 0.00 98 1010.7
20260510104122 23 184 1.6 6.4 0.00 0.00 0.00 98 1010.7
20260510104037 23 128 1.6 6.4 0.00 0.00 0.00 98 1010.7
20260510104021 23 121 1.6 6.4 0.00 0.00 0.00 98 1010.7
20260510103906 23 198 1.6 6.4 0.00 0.00 0.00 98 1010.7
20260510103753 23 162 3.2 6.4 0.00 0.00 0.00 98 1010.7
20260510103743 23 82 3.2 6.4 0.00 0.00 0.00 98 1010.7
20260510103653 23 166 3.2 6.4 0.00 0.00 0.00 98 1010.7
20260510103627 23 155 3.2 6.4 0.00 0.00 0.00 98 1010.7
20260510103452 23 124 1.6 6.4 0.00 0.00 0.00 98 1010.7
20260510103353 23 164 1.6 6.4 0.00 0.00 0.00 98 1010.7
20260510103238 23 116 1.6 6.4 0.00 0.00 0.00 98 1010.7
20260510103138 23 142 1.6 6.4 0.00 0.00 0.00 98 1010.7
20260510103039 23 171 1.6 6.4 0.00 0.00 0.00 98 1010.7
20260510103022 23 201 1.6 6.4 0.00 0.00 0.00 98 1010.7
20260510102938 23 95 1.6 6.4 0.00 0.00 0.00 98 1010.7
20260510102838 23 123 1.6 4.8 0.00 0.00 0.00 98 1010.7
20260510102738 23 195 1.6 4.8 0.00 0.00 0.00 98 1010.7
20260510102638 23 274 1.6 8.0 0.00 0.00 0.00 98 1010.7
20260510102539 23 96 1.6 8.0 0.00 0.00 0.00 98 1010.7
20260510102521 23 109 3.2 8.0 0.00 0.00 0.00 98 1010.7
20260510102438 23 208 3.2 9.7 0.00 0.00 0.00 98 1010.7
20260510102308 23 277 3.2 9.7 0.00 0.00 0.00 98 1010.6
20260510102231 23 199 3.2 9.7 0.00 0.00 0.00 98 1010.6
20260510102208 23 0 3.2 9.7 0.00 0.00 0.00 98 1010.6
20260510102118 23 0 3.2 9.7 0.00 0.00 0.00 98 1010.6
20260510102112 23 199 3.2 9.7 0.00 0.00 0.00 98 1010.6
20260510101908 23 198 3.2 9.7 0.00 0.00 0.00 98 1010.6
20260510101808 23 188 3.2 9.7 0.00 0.00 0.00 98 1010.6
20260510101709 23 116 3.2 9.7 0.00 0.00 0.00 98 1010.6
20260510101608 23 160 1.6 9.7 0.00 0.00 0.00 98 1010.6
20260510101508 23 129 1.6 4.8 0.00 0.00 0.00 98 1010.6
20260510101407 23 0 1.6 4.8 0.00 0.00 0.00 98 1010.6
20260510101307 23 124 3.2 4.8 0.00 0.00 0.00 98 1010.5
20260510101123 23 169 1.6 4.8 0.00 0.00 0.00 98 1010.5
20260510101008 23 202 1.6 4.8 0.00 0.00 0.00 97 1010.5
20260510100952 23 173 1.6 4.8 0.00 0.00 0.00 97 1010.6
20260510100908 23 79 3.2 4.8 0.00 0.00 0.00 97 1010.6
20260510100808 23 149 3.2 4.8 0.00 0.00 0.00 97 1010.6
20260510100709 23 172 3.2 4.8 0.00 0.00 0.00 97 1010.6
20260510100609 23 194 3.2 4.8 0.00 0.00 0.00 97 1010.5
20260510100508 23 159 3.2 4.8 0.00 0.00 0.00 97 1010.5
20260510100453 23 148 3.2 4.8 0.00 0.00 0.00 97 1010.6
20260510100408 23 152 3.2 4.8 0.00 0.00 0.00 97 1010.6
20260510100253 23 111 3.2 4.8 0.00 0.00 0.00 97 1010.6
20260510100215 23 140 1.6 4.8 0.00 0.00 0.00 97 1010.6
20260510100153 23 0 1.6 4.8 0.00 0.00 0.00 97 1010.6
20260510100058 23 140 1.6 4.8 0.00 0.00 0.00 97 1010.6
20260510095854 23 153 1.6 4.8 0.00 0.00 0.00 97 1010.6
20260510095739 23 96 1.6 4.8 0.00 0.00 0.00 97 1010.6
20260510095624 23 100 1.6 4.8 0.00 0.00 0.00 97 1010.5
20260510095523 23 178 1.6 3.2 0.00 0.00 0.00 97 1010.5
20260510095438 23 170 1.6 3.2 0.00 0.00 0.00 97 1010.5
20260510095409 23 166 1.6 3.2 0.00 0.00 0.00 97 1010.5
20260510095308 23 161 1.6 3.2 0.00 0.00 0.00 97 1010.5
20260510095209 23 0 1.6 3.2 0.00 0.00 0.00 97 1010.5
20260510095109 23 191 1.6 3.2 0.00 0.00 0.00 97 1010.5
20260510095008 23 97 1.6 3.2 0.00 0.00 0.00 97 1010.5
20260510094937 23 97 1.6 4.8 0.00 0.00 0.00 97 1010.5
20260510094854 23 160 1.6 4.8 0.00 0.00 0.00 97 1010.5
20260510094754 23 205 1.6 6.4 0.00 0.00 0.00 97 1010.5
20260510094639 23 155 1.6 6.4 0.00 0.00 0.00 97 1010.5
20260510094524 23 231 1.6 6.4 0.00 0.00 0.00 97 1010.4
20260510094437 23 103 3.2 6.4 0.00 0.00 0.00 97 1010.4
20260510094408 23 100 3.2 6.4 0.00 0.00 0.00 97 1010.4
20260510094309 23 186 3.2 6.4 0.00 0.00 0.00 97 1010.5
20260510094207 23 110 3.2 6.4 0.00 0.00 0.00 97 1010.5
20260510094142 23 219 3.2 6.4 0.00 0.00 0.00 97 1010.5
20260510094039 23 187 3.2 6.4 0.00 0.00 0.00 97 1010.5
20260510094029 23 110 3.2 6.4 0.00 0.00 0.00 97 1010.5
20260510093838 23 164 3.2 6.4 0.00 0.00 0.00 97 1010.5
20260510093724 23 201 1.6 6.4 0.00 0.00 0.00 97 1010.5
20260510093624 23 224 1.6 4.8 0.00 0.00 0.00 97 1010.5
20260510093524 23 159 1.6 4.8 0.00 0.00 0.00 97 1010.5
20260510093425 23 248 1.6 4.8 0.00 0.00 0.00 97 1010.6
20260510093324 23 247 3.2 4.8 0.00 0.00 0.00 97 1010.6
20260510093224 23 311 3.2 4.8 0.00 0.00 0.00 97 1010.6
20260510093124 23 216 3.2 4.8 0.00 0.00 0.00 97 1010.6
20260510093024 23 135 3.2 4.8 0.00 0.00 0.00 97 1010.6
20260510092923 23 177 3.2 4.8 0.00 0.00 0.00 97 1010.6
20260510092908 23 182 3.2 4.8 0.00 0.00 0.00 97 1010.6
20260510092808 23 193 3.2 4.8 0.00 0.00 0.00 97 1010.6
20260510092655 23 202 3.2 4.8 0.00 0.00 0.00 97 1010.6
20260510092539 23 179 1.6 4.8 0.00 0.00 0.00 97 1010.6
20260510092439 23 173 3.2 4.8 0.00 0.00 0.00 97 1010.7
20260510092422 23 173 1.6 4.8 0.00 0.00 0.00 97 1010.7
20260510092339 23 63 1.6 4.8 0.00 0.00 0.00 97 1010.7
20260510092239 23 152 1.6 4.8 0.00 0.00 0.00 97 1010.7
20260510092139 23 221 3.2 9.7 0.00 0.00 0.00 97 1010.7
20260510092025 23 147 3.2 9.7 0.00 0.00 0.00 97 1010.6
20260510091923 23 130 3.2 9.7 0.00 0.00 0.00 97 1010.7
20260510091909 23 181 3.2 9.7 0.00 0.00 0.00 97 1010.7
20260510091809 23 221 3.2 9.7 0.00 0.00 0.00 97 1010.7
20260510091708 23 327 3.2 9.7 0.00 0.00 0.00 97 1010.7
20260510091608 23 0 3.2 9.7 0.00 0.00 0.00 97 1010.7
20260510091508 23 126 3.2 9.7 0.00 0.00 0.00 97 1010.6
20260510091414 23 138 3.2 9.7 0.00 0.00 0.00 97 1010.6
20260510091408 23 93 3.2 9.7 0.00 0.00 0.00 97 1010.6
20260510091308 23 69 3.2 9.7 0.00 0.00 0.00 97 1010.6
20260510091206 23 76 3.2 9.7 0.00 0.00 0.00 97 1010.6
20260510091106 23 125 1.6 8.0 0.00 0.00 0.00 97 1010.6
20260510091007 23 110 3.2 8.0 0.00 0.00 0.00 97 1010.6
20260510090911 23 169 3.2 8.0 0.00 0.00 0.00 97 1010.6
20260510090907 23 190 3.2 8.0 0.00 0.00 0.00 97 1010.6
20260510090807 23 134 1.6 8.0 0.00 0.00 0.00 97 1010.6
20260510090706 23 153 1.6 8.0 0.00 0.00 0.00 97 1010.6
20260510090600 23 143 1.6 8.0 0.00 0.00 0.00 97 1010.6
20260510090458 23 224 3.2 8.0 0.00 0.00 0.00 97 1010.6
20260510090407 23 246 3.2 8.0 0.00 0.00 0.00 97 1010.6
20260510090358 23 116 3.2 8.0 0.00 0.00 0.00 97 1010.6
20260510090257 23 251 3.2 8.0 0.00 0.00 0.00 97 1010.6
20260510090158 23 178 3.2 8.0 0.00 0.00 0.00 97 1010.6
20260510090056 23 155 3.2 9.7 0.00 0.00 0.00 97 1010.6
20260510085954 23 234 3.2 9.7 0.00 0.00 0.00 97 1010.6
20260510085906 23 145 3.2 9.7 0.00 0.00 0.00 97 1010.6
20260510085855 23 0 3.2 9.7 0.00 0.00 0.00 97 1010.6
20260510085752 23 234 3.2 9.7 0.00 0.00 0.00 97 1010.6
20260510085652 23 74 3.2 9.7 0.00 0.00 0.00 97 1010.6
20260510085549 23 187 3.2 9.7 0.00 0.00 0.00 98 1010.6
20260510085449 23 132 3.2 9.7 0.00 0.00 0.00 98 1010.6
20260510085402 23 149 3.2 9.7 0.00 0.00 0.00 98 1010.6
20260510085346 23 94 3.2 9.7 0.00 0.00 0.00 98 1010.6
20260510085246 23 199 3.2 9.7 0.00 0.00 0.00 98 1010.6
20260510085146 23 81 3.2 9.7 0.00 0.00 0.00 98 1010.6
20260510085046 23 177 3.2 9.7 0.00 0.00 0.00 98 1010.6
20260510084943 23 137 3.2 9.7 0.00 0.00 0.00 98 1010.6
20260510084856 23 166 3.2 9.7 0.00 0.00 0.00 98 1010.6
20260510084840 23 164 3.2 9.7 0.00 0.00 0.00 98 1010.6
20260510084739 23 0 3.2 9.7 0.00 0.00 0.00 98 1010.5
20260510084628 23 139 3.2 8.0 0.00 0.00 0.00 98 1010.5
20260510084525 23 95 3.2 8.0 0.00 0.00 0.00 98 1010.5
20260510084425 23 216 3.2 8.0 0.00 0.00 0.00 98 1010.5
20260510084357 23 100 3.2 8.0 0.00 0.00 0.00 98 1010.5
20260510084325 23 95 3.2 8.0 0.00 0.00 0.00 98 1010.5
20260510084225 23 78 1.6 8.0 0.00 0.00 0.00 98 1010.5
20260510084126 23 213 1.6 8.0 0.00 0.00 0.00 98 1010.4
20260510084023 23 128 1.6 8.0 0.00 0.00 0.00 98 1010.4
20260510083922 23 101 1.6 8.0 0.00 0.00 0.00 98 1010.4
20260510083857 23 120 1.6 8.0 0.00 0.00 0.00 98 1010.4
20260510083817 23 230 1.6 8.0 0.00 0.00 0.00 98 1010.4
20260510083712 23 240 1.6 8.0 0.00 0.00 0.00 98 1010.4
20260510083610 23 276 3.2 8.0 0.00 0.00 0.00 98 1010.3
20260510083507 23 179 3.2 8.0 0.00 0.00 0.00 98 1010.3
20260510083407 23 247 3.2 8.0 0.00 0.00 0.00 98 1010.3
20260510083357 23 253 3.2 8.0 0.00 0.00 0.00 98 1010.3
20260510083307 23 0 3.2 8.0 0.00 0.00 0.00 98 1010.3
20260510083207 23 196 3.2 8.0 0.00 0.00 0.00 98 1010.3
20260510083104 23 157 3.2 6.4 0.00 0.00 0.00 98 1010.3
20260510083004 23 137 3.2 6.4 0.00 0.00 0.00 98 1010.3
20260510082901 23 192 3.2 6.4 0.00 0.00 0.00 98 1010.3
20260510082854 23 166 3.2 6.4 0.00 0.00 0.00 98 1010.3
20260510082802 23 151 1.6 6.4 0.00 0.00 0.00 98 1010.3
20260510082701 23 89 1.6 6.4 0.00 0.00 0.00 98 1010.3
20260510082601 23 196 1.6 6.4 0.00 0.00 0.00 98 1010.3
20260510082501 23 180 1.6 6.4 0.00 0.00 0.00 98 1010.3
20260510082359 23 183 1.6 6.4 0.00 0.00 0.00 98 1010.3
20260510082354 23 202 1.6 6.4 0.00 0.00 0.00 98 1010.3
20260510082259 23 178 1.6 6.4 0.00 0.00 0.00 98 1010.3
20260510082158 23 169 1.6 6.4 0.00 0.00 0.00 98 1010.3
20260510082115 23 81 1.6 6.4 0.00 0.00 0.00 98 1010.3
20260510082056 23 207 1.6 6.4 0.00 0.00 0.00 98 1010.3
20260510082005 23 296 1.6 6.4 0.00 0.00 0.00 98 1010.3
20260510082000 23 81 1.6 6.4 0.00 0.00 0.00 98 1010.3
20260510081755 23 189 1.6 6.4 0.00 0.00 0.00 98 1010.3
20260510081655 23 0 1.6 6.4 0.00 0.00 0.00 98 1010.4
20260510081555 23 0 1.6 6.4 0.00 0.00 0.00 98 1010.4
20260510081455 23 0 1.6 6.4 0.00 0.00 0.00 98 1010.4
20260510081356 23 222 1.6 6.4 0.00 0.00 0.00 98 1010.4
20260510081253 23 215 1.6 6.4 0.00 0.00 0.00 98 1010.4
20260510081153 23 182 1.6 6.4 0.00 0.00 0.00 98 1010.4
20260510081049 23 79 1.6 6.4 0.00 0.00 0.00 98 1010.4
20260510080949 23 0 1.6 6.4 0.00 0.00 0.00 98 1010.4
20260510080845 23 0 1.6 6.4 0.00 0.00 0.00 98 1010.4
20260510080749 23 24 1.6 6.4 0.00 0.00 0.00 98 1010.4
20260510080649 23 140 1.6 6.4 0.00 0.00 0.00 98 1010.5
20260510080550 23 118 1.6 6.4 0.00 0.00 0.00 98 1010.5
20260510080447 23 182 1.6 6.4 0.00 0.00 0.00 98 1010.5
20260510080347 23 157 1.6 4.8 0.00 0.00 0.00 98 1010.5
20260510075929 23 180 1.6 6.4 0.00 0.00 0.00 98 1010.5
20260510075825 23 125 1.6 6.4 0.00 0.00 0.00 98 1010.5
20260510075758 23 132 1.6 6.4 0.00 0.00 0.00 98 1010.5
20260510075726 23 228 1.6 6.4 0.00 0.00 0.00 98 1010.5
20260510075626 23 116 1.6 6.4 0.00 0.00 0.00 98 1010.5
20260510075526 23 171 1.6 6.4 0.00 0.00 0.00 98 1010.5
20260510075423 23 97 3.2 8.0 0.00 0.00 0.00 98 1010.4
20260510075323 23 94 3.2 8.0 0.00 0.00 0.00 98 1010.4
20260510075254 23 329 3.2 8.0 0.00 0.00 0.00 98 1010.4
20260510075223 23 164 3.2 8.0 0.00 0.00 0.00 98 1010.4
20260510075120 23 108 3.2 8.0 0.00 0.00 0.00 98 1010.4
20260510075020 23 159 3.2 8.0 0.00 0.00 0.00 98 1010.3
20260510074919 23 194 3.2 8.0 0.00 0.00 0.00 98 1010.3
20260510074820 23 231 3.2 8.0 0.00 0.00 0.00 98 1010.3
20260510074748 23 89 3.2 8.0 0.00 0.00 0.00 98 1010.3
20260510074717 23 236 3.2 8.0 0.00 0.00 0.00 98 1010.3
20260510074617 23 82 3.2 8.0 0.00 0.00 0.00 98 1010.3
20260510074517 23 193 3.2 8.0 0.00 0.00 0.00 98 1010.3
20260510074414 23 314 3.2 9.7 0.00 0.00 0.00 98 1010.3
20260510074314 23 134 3.2 9.7 0.00 0.00 0.00 98 1010.3
20260510074249 23 186 3.2 9.7 0.00 0.00 0.00 98 1010.3
20260510074214 23 140 3.2 9.7 0.00 0.00 0.00 98 1010.3
20260510074114 23 359 3.2 9.7 0.00 0.00 0.00 98 1010.3
20260510074014 23 137 3.2 9.7 0.00 0.00 0.00 98 1010.3
20260510073915 23 91 3.2 9.7 0.00 0.00 0.00 98 1010.3
20260510073812 23 109 3.2 9.7 0.00 0.00 0.00 98 1010.3
20260510073749 23 102 3.2 9.7 0.00 0.00 0.00 98 1010.3
20260510073709 23 187 3.2 9.7 0.00 0.00 0.00 98 1010.3
20260510073609 23 292 3.2 9.7 0.00 0.00 0.00 98 1010.3
20260510073511 23 198 3.2 9.7 0.00 0.00 0.00 98 1010.3
20260510073506 23 98 3.2 9.7 0.00 0.00 0.00 98 1010.3
20260510073408 23 129 3.2 9.7 0.00 0.00 0.00 98 1010.3
20260510073354 23 131 3.2 9.7 0.00 0.00 0.00 98 1010.3
20260510073208 23 167 3.2 9.7 0.00 0.00 0.00 98 1010.4
20260510073109 23 90 1.6 9.7 0.00 0.00 0.00 98 1010.4
20260510073008 23 189 1.6 6.4 0.00 0.00 0.00 98 1010.4
20260510072905 23 46 1.6 6.4 0.00 0.00 0.00 98 1010.4
20260510072805 23 118 1.6 6.4 0.00 0.00 0.00 98 1010.4
20260510072750 23 158 1.6 6.4 0.00 0.00 0.00 98 1010.4
20260510072705 23 116 1.6 6.4 0.00 0.00 0.00 98 1010.4
20260510072606 23 117 1.6 6.4 0.00 0.00 0.00 98 1010.4
20260510072505 23 212 1.6 6.4 0.00 0.00 0.00 98 1010.4
20260510072405 23 75 1.6 6.4 0.00 0.00 0.00 98 1010.4
20260510072306 23 0 1.6 6.4 0.00 0.00 0.00 98 1010.4
20260510072249 23 154 1.6 6.4 0.00 0.00 0.00 98 1010.4
20260510072205 23 284 1.6 6.4 0.00 0.00 0.00 98 1010.4
20260510072106 23 169 1.6 6.4 0.00 0.00 0.00 98 1010.4
20260510072007 23 170 1.6 6.4 0.00 0.00 0.00 98 1010.4
20260510071906 23 104 1.6 6.4 0.00 0.00 0.00 98 1010.4
20260510071805 23 174 1.6 6.4 0.00 0.00 0.00 98 1010.4
20260510071749 23 155 1.6 6.4 0.00 0.00 0.00 98 1010.4
20260510071705 23 212 3.2 6.4 0.00 0.00 0.00 98 1010.4
20260510071602 23 146 3.2 6.4 0.00 0.00 0.00 98 1010.4
20260510071459 23 119 3.2 6.4 0.00 0.00 0.00 98 1010.4
20260510071359 23 117 3.2 6.4 0.00 0.00 0.00 98 1010.4
20260510071300 23 149 3.2 6.4 0.00 0.00 0.00 98 1010.4
20260510071249 23 195 3.2 6.4 0.00 0.00 0.00 98 1010.4
20260510071200 23 125 3.2 11.3 0.00 0.00 0.00 98 1010.4
20260510071059 23 157 3.2 11.3 0.00 0.00 0.00 98 1010.4
20260510070959 23 124 3.2 11.3 0.00 0.00 0.00 98 1010.4
20260510070859 23 154 3.2 11.3 0.00 0.00 0.00 98 1010.4
20260510070800 23 107 3.2 11.3 0.00 0.00 0.00 98 1010.4
20260510070737 23 207 3.2 11.3 0.00 0.00 0.00 98 1010.4
20260510070651 23 100 3.2 11.3 0.00 0.00 0.00 98 1010.5
20260510070545 23 146 3.2 11.3 0.00 0.00 0.00 98 1010.5
20260510070444 23 129 3.2 11.3 0.00 0.00 0.00 98 1010.5
20260510070346 23 189 3.2 11.3 0.00 0.00 0.00 98 1010.5
20260510070236 23 43 3.2 11.3 0.00 0.00 0.00 98 1010.5
20260510070123 23 78 3.2 11.3 0.00 0.00 0.00 98 1010.5
20260510070020 23 155 3.2 11.3 0.00 0.00 0.00 98 1010.5
20260510065921 23 78 3.2 11.3 0.00 0.00 0.00 98 1010.5
20260510065821 23 155 3.2 8.0 0.00 0.00 0.00 98 1010.5
20260510065735 23 135 3.2 8.0 0.00 0.00 0.00 98 1010.5
20260510065717 23 228 3.2 8.0 0.00 0.00 0.00 98 1010.5
20260510065618 23 160 3.2 8.0 0.00 0.00 0.00 98 1010.5
20260510065518 23 125 3.2 8.0 0.00 0.00 0.00 98 1010.5
20260510065415 23 188 3.2 8.0 0.00 0.00 0.00 98 1010.5
20260510065315 23 94 3.2 8.0 0.00 0.00 0.00 97 1010.5
20260510065232 23 104 3.2 8.0 0.00 0.00 0.00 97 1010.5
20260510065215 23 116 3.2 8.0 0.00 0.00 0.00 97 1010.5
20260510065115 23 105 3.2 8.0 0.00 0.00 0.00 97 1010.5
20260510065011 23 99 3.2 8.0 0.00 0.00 0.00 97 1010.5
20260510064911 23 91 3.2 8.0 0.00 0.00 0.00 97 1010.5
20260510064809 23 96 3.2 8.0 0.00 0.00 0.00 97 1010.5
20260510064732 23 115 3.2 8.0 0.00 0.00 0.00 97 1010.5
20260510064710 23 102 3.2 8.0 0.00 0.00 0.00 97 1010.5
20260510064610 23 115 3.2 8.0 0.00 0.00 0.00 97 1010.5
20260510064510 23 234 3.2 9.7 0.00 0.00 0.00 97 1010.5
20260510064452 23 152 3.2 9.7 0.00 0.00 0.00 97 1010.5
20260510064410 23 227 3.2 9.7 0.00 0.00 0.00 97 1010.5
20260510064337 23 201 3.2 9.7 0.00 0.00 0.00 97 1010.5
20260510064210 23 51 3.2 9.7 0.00 0.00 0.00 97 1010.5
20260510064110 23 105 3.2 9.7 0.00 0.00 0.00 97 1010.5
20260510064006 23 262 3.2 9.7 0.00 0.00 0.00 97 1010.5
20260510063906 23 140 3.2 9.7 0.00 0.00 0.00 97 1010.5
20260510063806 23 203 3.2 9.7 0.00 0.00 0.00 97 1010.5
20260510063728 23 112 3.2 9.7 0.00 0.00 0.00 97 1010.5
20260510063706 23 98 3.2 9.7 0.00 0.00 0.00 97 1010.5
20260510063606 23 167 3.2 9.7 0.00 0.00 0.00 97 1010.6
20260510063506 23 222 3.2 8.0 0.00 0.00 0.00 96 1010.7
20260510063400 23 224 3.2 8.0 0.00 0.00 0.00 96 1010.7
20260510063300 23 153 3.2 8.0 0.00 0.00 0.00 96 1010.7
20260510063228 23 142 3.2 8.0 0.00 0.00 0.00 96 1010.7
20260510063154 -17 174 3.2 8.0 0.00 0.00 0.00
20260510063051 -17 90 3.2 6.4 0.00 0.00 0.00
20260510062952 23 84 3.2 6.4 0.00 0.00 0.00 96 1010.8
20260510062851 23 129 3.2 6.4 0.00 0.00 0.00 96 1010.8
20260510062751 23 83 3.2 6.4 0.00 0.00 0.00 96 1010.8
20260510062728 23 182 3.2 4.8 0.00 0.00 0.00 96 1010.8
20260510062651 23 172 1.6 4.8 0.00 0.00 0.00 96 1010.8
20260510062515 23 91 1.6 4.8 0.00 0.00 0.00 96 1010.8
20260510062348 23 201 1.6 4.8 0.00 0.00 0.00 96 1010.8
20260510062215 23 88 1.6 4.8 0.00 0.00 0.00 96 1010.8
20260510061951 -17 91 1.6 3.2 0.00 0.00 0.00
20260510061842 -17 182 1.6 4.8 0.00 0.00 0.00
20260510061712 -17 293 3.2 9.7 0.00 0.00 0.00
20260510061558 23 165 4.8 11.3 0.00 0.00 0.00 95 1010.9
20260510061210 23 216 3.2 11.3 0.00 0.00 0.00 95 1010.9
20260510061019 23 100 3.2 11.3 0.00 0.00 0.00 95 1010.9
20260510060918 23 165 3.2 11.3 0.00 0.00 0.00 95 1010.9
20260510060827 23 92 4.8 11.3 0.00 0.00 0.00 95 1010.9
20260510060806 23 97 3.2 11.3 0.00 0.00 0.00 95 1010.9
20260510060706 -17 165 3.2 9.7 0.00 0.00 0.00
20260510060557 -17 100 3.2 9.7 0.00 0.00 0.00
20260510060545 23 159 3.2 9.7 0.00 0.00 0.00 96 1010.9
20260510060454 23 90 3.2 9.7 0.00 0.00 0.00 96 1010.9
20260510060431 23 186 3.2 9.7 0.00 0.00 0.00 96 1010.9
20260510060249 23 142 3.2 9.7 0.00 0.00 0.00 96 1010.9
20260510060146 23 98 4.8 11.3 0.00 0.00 0.00 96 1010.9
20260510060040 23 99 3.2 11.3 0.00 0.00 0.00 96 1010.9
20260510055937 23 88 4.8 11.3 0.00 0.00 0.00 96 1010.9
20260510055822 23 135 3.2 11.3 0.00 0.00 0.00 96 1010.9
20260510055655 23 266 3.2 11.3 0.00 0.00 0.00 96 1010.9
20260510055542 23 105 3.2 11.3 0.00 0.00 0.00 96 1010.9
20260510055508 23 157 3.2 11.3 0.00 0.00 0.00 96 1010.9
20260510055430 23 140 3.2 11.3 0.00 0.00 0.00 96 1010.9
20260510055356 23 205 3.2 11.3 0.00 0.00 0.00 96 1010.9
20260510055206 23 106 3.2 9.7 0.00 0.00 0.00 96 1010.9
20260510055058 23 90 3.2 9.7 0.00 0.00 0.00 96 1010.9
20260510054951 23 89 3.2 9.7 0.00 0.00 0.00 97 1010.9
20260510054843 23 207 3.2 9.7 0.00 0.00 0.00 97 1010.9
20260510054750 23 112 3.2 9.7 0.00 0.00 0.00 97 1010.9
20260510054734 23 110 3.2 9.7 0.00 0.00 0.00 97 1010.9
20260510054619 23 183 3.2 9.7 0.00 0.00 0.00 97 1010.9
20260510054513 23 107 3.2 9.7 0.00 0.00 0.00 97 1011.0
20260510054411 23 62 3.2 9.7 0.00 0.00 0.00 97 1011.0
20260510054304 23 123 3.2 9.7 0.00 0.00 0.00 97 1011.1
20260510054242 23 208 3.2 9.7 0.00 0.00 0.00 97 1011.1
20260510054204 23 78 3.2 9.7 0.00 0.00 0.00 97 1011.1
20260510054104 23 75 3.2 9.7 0.00 0.00 0.00 97 1011.1
20260510054009 23 69 3.2 8.0 0.00 0.00 0.00 97 1011.1
20260510054004 23 153 4.8 9.7 0.00 0.00 0.00 97 1011.1
20260510053901 23 79 3.2 9.7 0.00 0.00 0.00 97 1011.1
20260510053842 23 108 3.2 8.0 0.00 0.00 0.00 97 1011.1
20260510053701 23 117 3.2 8.0 0.00 0.00 0.00 97 1011.1
20260510053601 23 198 3.2 9.7 0.00 0.00 0.00 97 1011.2
20260510053500 23 71 3.2 9.7 0.00 0.00 0.00 97 1011.2
20260510053400 23 101 3.2 9.7 0.00 0.00 0.00 97 1011.2
20260510053301 23 124 3.2 9.7 0.00 0.00 0.00 97 1011.2
20260510053233 23 74 3.2 9.7 0.00 0.00 0.00 97 1011.2
20260510053158 23 86 3.2 9.7 0.00 0.00 0.00 97 1011.2
20260510053055 23 90 3.2 9.7 0.00 0.00 0.00 97 1011.2
20260510052955 23 76 3.2 9.7 0.00 0.00 0.00 98 1011.2
20260510052852 23 71 3.2 9.7 0.00 0.00 0.00 98 1011.2
20260510052752 23 139 3.2 9.7 0.00 0.00 0.00 98 1011.2
20260510052730 23 38 3.2 9.7 0.00 0.00 0.00 98 1011.2
20260510052652 23 271 3.2 9.7 0.00 0.00 0.00 98 1011.2
20260510052552 23 74 3.2 8.0 0.00 0.00 0.00 98 1011.1
20260510052452 23 108 3.2 8.0 0.00 0.00 0.00 98 1011.2
20260510052353 23 115 3.2 8.0 0.00 0.00 0.00 98 1011.2
20260510052252 23 115 3.2 8.0 0.00 0.00 0.00 98 1011.2
20260510052230 23 53 3.2 8.0 0.00 0.00 0.00 98 1011.2
20260510052153 23 77 3.2 8.0 0.00 0.00 0.00 98 1011.2
20260510052052 23 98 3.2 8.0 0.00 0.00 0.00 98 1011.3
20260510051952 23 125 3.2 8.0 0.00 0.00 0.00 98 1011.3
20260510051852 23 102 3.2 6.4 0.00 0.00 0.00 98 1011.3
20260510051753 23 96 1.6 6.4 0.00 0.00 0.00 98 1011.3
20260510051730 23 125 1.6 6.4 0.00 0.00 0.00 98 1011.3
20260510051652 23 98 1.6 6.4 0.00 0.00 0.00 98 1011.3
20260510051552 23 122 1.6 6.4 0.00 0.00 0.00 98 1011.3
20260510051454 23 93 1.6 6.4 0.00 0.00 0.00 98 1011.3
20260510051349 23 93 1.6 6.4 0.00 0.00 0.00 98 1011.4
20260510051246 23 59 1.6 6.4 0.00 0.00 0.00 98 1011.4
20260510051227 23 112 1.6 6.4 0.00 0.00 0.00 98 1011.4
20260510051146 23 67 1.6 6.4 0.00 0.00 0.00 98 1011.4
20260510051034 23 57 1.6 6.4 0.00 0.00 0.00 98 1011.4
20260510050928 23 140 1.6 6.4 0.00 0.00 0.00 97 1011.4
20260510050828 23 0 1.6 4.8 0.00 0.00 0.00 97 1011.4
20260510050729 23 93 1.6 4.8 0.00 0.00 0.00 97 1011.4
20260510050626 23 92 1.6 4.8 0.00 0.00 0.00 97 1011.4
20260510050526 23 105 1.6 4.8 0.00 0.00 0.00 97 1011.3
20260510050426 23 75 1.6 6.4 0.00 0.00 0.00 97 1011.4
20260510050325 23 104 1.6 6.4 0.00 0.00 0.00 97 1011.4
20260510050225 23 77 1.6 6.4 0.00 0.00 0.00 97 1011.4
20260510050123 23 88 1.6 6.4 0.00 0.00 0.00 97 1011.4
20260510050019 23 106 1.6 6.4 0.00 0.00 0.00 97 1011.4
20260510045919 23 251 1.6 6.4 0.00 0.00 0.00 97 1011.4
20260510045819 23 0 1.6 6.4 0.00 0.00 0.00 97 1011.4
20260510045716 23 0 1.6 6.4 0.00 0.00 0.00 97 1011.4
20260510045616 23 83 1.6 6.4 0.00 0.00 0.00 97 1011.4
20260510045516 23 181 1.6 6.4 0.00 0.00 0.00 97 1011.4
20260510045442 23 105 3.2 6.4 0.00 0.00 0.00 97 1011.3
20260510045417 23 319 1.6 6.4 0.00 0.00 0.00 97 1011.4
20260510045330 23 61 3.2 6.4 0.00 0.00 0.00 97 1011.3
20260510045213 23 190 3.2 6.4 0.00 0.00 0.00 97 1011.3
20260510045114 23 71 3.2 6.4 0.00 0.00 0.00 97 1011.3
20260510045014 23 134 3.2 6.4 0.00 0.00 0.00 97 1011.3
20260510044914 23 101 3.2 6.4 0.00 0.00 0.00 97 1011.3
20260510044812 23 95 3.2 6.4 0.00 0.00 0.00 97 1011.3
20260510044722 23 56 3.2 6.4 0.00 0.00 0.00 97 1011.3
20260510044711 23 121 3.2 6.4 0.00 0.00 0.00 97 1011.3
20260510044605 23 127 1.6 6.4 0.00 0.00 0.00 97 1011.3
20260510044456 23 107 1.6 6.4 0.00 0.00 0.00 97 1011.4
20260510044353 23 70 1.6 6.4 0.00 0.00 0.00 97 1011.4
20260510044248 23 107 1.6 6.4 0.00 0.00 0.00 97 1011.4
20260510044219 23 177 1.6 6.4 0.00 0.00 0.00 97 1011.4
20260510044132 23 82 1.6 6.4 0.00 0.00 0.00 97 1011.4
20260510044032 23 51 1.6 6.4 0.00 0.00 0.00 97 1011.4
20260510043939 23 0 1.6 4.8 0.00 0.00 0.00 97 1011.5
20260510043926 23 63 1.6 4.8 0.00 0.00 0.00 97 1011.5
20260510043827 23 124 1.6 4.8 0.00 0.00 0.00 97 1011.5
20260510043821 23 124 1.6 4.8 0.00 0.00 0.00 97 1011.5
20260510043616 23 74 1.6 4.8 0.00 0.00 0.00 96 1011.4
20260510043508 23 353 1.6 4.8 0.00 0.00 0.00 96 1011.4
20260510043407 23 69 1.6 4.8 0.00 0.00 0.00 96 1011.4
20260510043308 23 104 1.6 4.8 0.00 0.00 0.00 96 1011.4
20260510043215 23 120 1.6 4.8 0.00 0.00 0.00 96 1011.4
20260510043158 23 0 1.6 4.8 0.00 0.00 0.00 96 1011.4
20260510043056 23 38 1.6 4.8 0.00 0.00 0.00 96 1011.4
20260510042945 23 103 1.6 4.8 0.00 0.00 0.00 96 1011.4
20260510042844 23 27 1.6 4.8 0.00 0.00 0.00 96 1011.4
20260510042741 23 59 1.6 4.8 0.00 0.00 0.00 96 1011.5
20260510042713 23 42 1.6 4.8 0.00 0.00 0.00 96 1011.5
20260510042631 23 57 1.6 4.8 0.00 0.00 0.00 96 1011.5
20260510042526 23 34 1.6 4.8 0.00 0.00 0.00 96 1011.5
20260510042423 23 11 1.6 4.8 0.00 0.00 0.00 95 1011.5
20260510042320 23 41 1.6 4.8 0.00 0.00 0.00 95 1011.5
20260510042213 23 38 1.6 6.4 0.00 0.00 0.00 95 1011.5
20260510042112 23 49 1.6 6.4 0.00 0.00 0.00 95 1011.4
20260510042012 23 82 1.6 6.4 0.00 0.00 0.00 95 1011.4
20260510041902 23 62 1.6 6.4 0.00 0.00 0.00 95 1011.4
20260510041802 23 87 1.6 6.4 0.00 0.00 0.00 95 1011.4
20260510041711 23 62 1.6 6.4 0.00 0.00 0.00 95 1011.4
20260510041656 23 62 1.6 6.4 0.00 0.00 0.00 95 1011.4
20260510041556 23 219 3.2 6.4 0.00 0.00 0.00 95 1011.4
20260510041450 23 88 3.2 6.4 0.00 0.00 0.00 95 1011.4
20260510041350 23 96 3.2 6.4 0.00 0.00 0.00 95 1011.4
20260510041250 23 94 3.2 6.4 0.00 0.00 0.00 95 1011.4
20260510041211 23 127 3.2 6.4 0.00 0.00 0.00 95 1011.3
20260510041150 23 114 3.2 6.4 0.00 0.00 0.00 95 1011.3
20260510041040 23 96 3.2 6.4 0.00 0.00 0.00 95 1011.3
20260510040941 23 126 3.2 6.4 0.00 0.00 0.00 95 1011.3
20260510040932 23 113 3.2 6.4 0.00 0.00 0.00 95 1011.3
20260510040841 23 128 3.2 6.4 0.00 0.00 0.00 95 1011.3
20260510040817 23 81 3.2 6.4 0.00 0.00 0.00 95 1011.3
20260510040641 23 116 3.2 6.4 0.00 0.00 0.00 95 1011.3
20260510040541 23 130 3.2 6.4 0.00 0.00 0.00 95 1011.3
20260510040441 23 105 3.2 6.4 0.00 0.00 0.00 94 1011.3
20260510040336 23 99 3.2 6.4 0.00 0.00 0.00 94 1011.3
20260510040235 23 193 1.6 6.4 0.00 0.00 0.00 94 1011.3
20260510040211 23 86 1.6 6.4 0.00 0.00 0.00 94 1011.3
20260510040135 23 72 1.6 6.4 0.00 0.00 0.00 94 1011.3
20260510040032 23 140 1.6 6.4 0.00 0.00 0.00 94 1011.4
20260510035931 23 68 1.6 6.4 0.00 0.00 0.00 94 1011.4
20260510035927 23 167 1.6 6.4 0.00 0.00 0.00 94 1011.4
20260510035826 23 0 1.6 6.4 0.00 0.00 0.00 94 1011.4
20260510035810 23 36 1.6 6.4 0.00 0.00 0.00 94 1011.4
20260510035621 23 94 1.6 6.4 0.00 0.00 0.00 94 1011.4
20260510035519 23 121 1.6 6.4 0.00 0.00 0.00 94 1011.4
20260510035414 23 46 1.6 6.4 0.00 0.00 0.00 94 1011.4
20260510035315 23 21 1.6 6.4 0.00 0.00 0.00 94 1011.4
20260510035215 23 95 1.6 6.4 0.00 0.00 0.00 94 1011.4
20260510035205 23 81 1.6 6.4 0.00 0.00 0.00 94 1011.4
20260510035115 23 97 1.6 6.4 0.00 0.00 0.00 94 1011.4
20260510035015 23 95 1.6 6.4 0.00 0.00 0.00 94 1011.4
20260510034909 23 87 0.0 3.2 0.00 0.00 0.00 94 1011.4
20260510034809 23 87 0.0 3.2 0.00 0.00 0.00 94 1011.4
20260510034703 23 0 0.0 3.2 0.00 0.00 0.00 94 1011.4
20260510034608 23 167 0.0 3.2 0.00 0.00 0.00 94 1011.4
20260510034508 23 249 0.0 3.2 0.00 0.00 0.00 94 1011.4
20260510034409 23 221 0.0 3.2 0.00 0.00 0.00 93 1011.5
20260510034309 23 123 0.0 3.2 0.00 0.00 0.00 93 1011.5
20260510034203 23 104 1.6 3.2 0.00 0.00 0.00 93 1011.5
20260510034108 23 132 1.6 4.8 0.00 0.00 0.00 93 1011.5
20260510034005 23 0 1.6 4.8 0.00 0.00 0.00 93 1011.5
20260510033905 23 61 1.6 4.8 0.00 0.00 0.00 93 1011.5
20260510033759 23 0 1.6 4.8 0.00 0.00 0.00 93 1011.5
20260510033703 23 323 1.6 4.8 0.00 0.00 0.00 93 1011.5
20260510033659 23 335 1.6 4.8 0.00 0.00 0.00 93 1011.5
20260510033556 23 357 1.6 4.8 0.00 0.00 0.00 93 1011.6
20260510033454 23 333 1.6 4.8 0.00 0.00 0.00 93 1011.6
20260510033354 23 28 1.6 4.8 0.00 0.00 0.00 93 1011.6
20260510033251 23 6 1.6 4.8 0.00 0.00 0.00 93 1011.6
20260510033159 23 16 1.6 4.8 0.00 0.00 0.00 93 1011.6
20260510033151 23 13 1.6 4.8 0.00 0.00 0.00 93 1011.6
20260510033051 23 13 1.6 3.2 0.00 0.00 0.00 93 1011.5
20260510032948 23 355 1.6 3.2 0.00 0.00 0.00 93 1011.5
20260510032838 23 354 1.6 4.8 0.00 0.00 0.00 93 1011.5
20260510032735 23 148 1.6 4.8 0.00 0.00 0.00 93 1011.5
20260510032656 23 34 1.6 4.8 0.00 0.00 0.00 92 1011.5
20260510032635 23 38 1.6 4.8 0.00 0.00 0.00 92 1011.5
20260510032529 23 38 1.6 4.8 0.00 0.00 0.00 92 1011.5
20260510032426 23 5 1.6 4.8 0.00 0.00 0.00 92 1011.5
20260510032318 23 25 1.6 4.8 0.00 0.00 0.00 92 1011.5
20260510032215 23 35 1.6 6.4 0.00 0.00 0.00 92 1011.5
20260510032156 23 349 1.6 6.4 0.00 0.00 0.00 92 1011.5
20260510032113 23 14 1.6 6.4 0.00 0.00 0.00 92 1011.5
20260510032014 23 31 1.6 6.4 0.00 0.00 0.00 92 1011.5
20260510031912 23 245 3.2 6.4 0.00 0.00 0.00 92 1011.5
20260510031813 23 358 3.2 6.4 0.00 0.00 0.00 92 1011.5
20260510031712 23 0 3.2 8.0 0.00 0.00 0.00 92 1011.5
20260510031649 23 0 3.2 8.0 0.00 0.00 0.00 92 1011.5
20260510031612 23 44 3.2 8.0 0.00 0.00 0.00 92 1011.4
20260510031512 23 33 3.2 8.0 0.00 0.00 0.00 92 1011.4
20260510031408 23 18 3.2 8.0 0.00 0.00 0.00 92 1011.4
20260510031309 23 62 3.2 8.0 0.00 0.00 0.00 92 1011.3
20260510031209 23 64 3.2 8.0 0.00 0.00 0.00 92 1011.3
20260510031146 23 112 3.2 8.0 0.00 0.00 0.00 92 1011.3
20260510031109 23 112 3.2 8.0 0.00 0.00 0.00 92 1011.3
20260510031009 23 49 1.6 8.0 0.00 0.00 0.00 92 1011.2
20260510030906 23 82 1.6 8.0 0.00 0.00 0.00 92 1011.2
20260510030806 23 58 1.6 8.0 0.00 0.00 0.00 92 1011.2
20260510030700 23 91 3.2 8.0 0.00 0.00 0.00 92 1011.2
20260510030647 23 75 3.2 8.0 0.00 0.00 0.00 92 1011.2
20260510030600 23 60 3.2 8.0 0.00 0.00 0.00 92 1011.1
20260510030501 23 146 3.2 8.0 0.00 0.00 0.00 92 1011.1
20260510030400 23 99 3.2 8.0 0.00 0.00 0.00 92 1011.1
20260510030300 23 155 3.2 8.0 0.00 0.00 0.00 92 1011.1
20260510030200 23 60 3.2 8.0 0.00 0.00 0.00 92 1011.1
20260510030147 23 126 3.2 8.0 0.00 0.00 0.00 92 1011.1
20260510030135 24 97 1.6 8.0 0.00 0.00 0.00 91 1010.9
20260510030057 24 55 3.2 8.0 0.00 0.00 0.00 92 1011.0
20260510030018 24 114 3.2 8.0 0.00 0.00 0.00 92 1011.0
20260510025851 24 84 3.2 8.0 0.00 0.00 0.00 92 1011.0
20260510025757 24 111 3.2 8.0 0.00 0.00 0.00 92 1011.0
20260510025752 24 97 1.6 8.0 0.00 0.00 0.00 91 1010.9
20260510025548 24 90 1.6 8.0 0.00 0.00 0.00 91 1010.9
20260510025440 24 125 1.6 4.8 0.00 0.00 0.00 91 1011.0
20260510025336 24 99 1.6 4.8 0.00 0.00 0.00 91 1011.0
20260510025237 24 56 1.6 4.8 0.00 0.00 0.00 91 1011.0
20260510025147 24 1 1.6 4.8 0.00 0.00 0.00 91 1010.9
20260510025129 24 0 1.6 4.8 0.00 0.00 0.00 91 1010.9
20260510025027 24 265 1.6 4.8 0.00 0.00 0.00 91 1010.9
20260510024925 24 29 1.6 4.8 0.00 0.00 0.00 91 1010.9
20260510024825 24 13 1.6 4.8 0.00 0.00 0.00 91 1010.9
20260510024724 24 275 1.6 6.4 0.00 0.00 0.00 91 1010.9
20260510024644 24 0 3.2 6.4 0.00 0.00 0.00 91 1010.8
20260510024624 24 59 3.2 6.4 0.00 0.00 0.00 91 1010.8
20260510024524 24 61 3.2 6.4 0.00 0.00 0.00 91 1010.8
20260510024421 24 36 3.2 6.4 0.00 0.00 0.00 90 1010.8
20260510024321 24 35 3.2 6.4 0.00 0.00 0.00 90 1010.8
20260510024215 24 42 3.2 6.4 0.00 0.00 0.00 90 1010.7
20260510024142 24 68 3.2 6.4 0.00 0.00 0.00 90 1010.7
20260510024112 24 0 3.2 6.4 0.00 0.00 0.00 90 1010.7
20260510024010 24 74 3.2 6.4 0.00 0.00 0.00 90 1010.7
20260510023906 24 94 3.2 6.4 0.00 0.00 0.00 90 1010.6
20260510023854 24 106 3.2 8.0 0.00 0.00 0.00 91 1010.6
20260510023806 24 153 3.2 8.0 0.00 0.00 0.00 91 1010.6
20260510023744 24 107 3.2 8.0 0.00 0.00 0.00 91 1010.6
20260510023603 24 99 3.2 8.0 0.00 0.00 0.00 91 1010.6
20260510023500 24 101 3.2 8.0 0.00 0.00 0.00 91 1010.5
20260510023354 24 57 3.2 8.0 0.00 0.00 0.00 91 1010.5
20260510023249 24 101 3.2 8.0 0.00 0.00 0.00 91 1010.6
20260510023149 24 110 3.2 8.0 0.00 0.00 0.00 91 1010.6
20260510023129 24 101 3.2 8.0 0.00 0.00 0.00 91 1010.6
20260510023048 24 164 3.2 8.0 0.00 0.00 0.00 91 1010.5
20260510022946 24 80 3.2 8.0 0.00 0.00 0.00 91 1010.5
20260510022842 24 105 3.2 8.0 0.00 0.00 0.00 91 1010.5
20260510022742 24 92 3.2 8.0 0.00 0.00 0.00 91 1010.5
20260510022642 24 110 3.2 6.4 0.00 0.00 0.00 91 1010.5
20260510022629 24 117 3.2 6.4 0.00 0.00 0.00 91 1010.5
20260510022543 24 89 1.6 6.4 0.00 0.00 0.00 90 1010.4
20260510022442 24 103 3.2 8.0 0.00 0.00 0.00 90 1010.4
20260510022342 24 122 3.2 9.7 0.00 0.00 0.00 90 1010.4
20260510022236 24 101 3.2 9.7 0.00 0.00 0.00 90 1010.3
20260510022135 24 167 3.2 9.7 0.00 0.00 0.00 90 1010.3
20260510022130 24 143 3.2 9.7 0.00 0.00 0.00 90 1010.3
20260510022033 24 100 3.2 9.7 0.00 0.00 0.00 90 1010.2
20260510021933 24 78 3.2 9.7 0.00 0.00 0.00 90 1010.2
20260510021830 24 166 3.2 9.7 0.00 0.00 0.00 90 1010.2
20260510021727 24 115 3.2 9.7 0.00 0.00 0.00 90 1010.1
20260510021625 24 89 3.2 9.7 0.00 0.00 0.00 90 1010.1
20260510021519 24 8 4.8 9.7 0.00 0.00 0.00 90 1010.0
20260510021419 24 123 3.2 9.7 0.00 0.00 0.00 90 1010.0
20260510021318 24 78 3.2 8.0 0.00 0.00 0.00 90 1010.0
20260510021219 24 94 3.2 8.0 0.00 0.00 0.00 89 1010.0
20260510021126 25 114 3.2 8.0 0.00 0.00 0.00 89 1010.0
20260510021116 25 115 3.2 8.0 0.00 0.00 0.00 89 1010.0
20260510021014 25 76 3.2 9.7 0.00 0.00 0.00 89 1010.0
20260510020914 25 97 3.2 9.7 0.00 0.00 0.00 89 1010.0
20260510020815 25 71 3.2 9.7 0.00 0.00 0.00 89 1010.0
20260510020714 25 158 3.2 9.7 0.00 0.00 0.00 89 1010.0
20260510020623 25 93 3.2 9.7 0.00 0.00 0.00 89 1010.0
20260510020614 25 72 3.2 9.7 0.00 0.00 0.00 89 1010.0
20260510020514 25 194 3.2 9.7 0.00 0.00 0.00 89 1009.9
20260510020414 25 110 3.2 9.7 0.00 0.00 0.00 89 1009.9
20260510020344 25 98 3.2 11.3 0.00 0.00 0.00 88 1009.7
20260510020314 25 57 3.2 9.7 0.00 0.00 0.00 88 1009.8
20260510020230 25 76 3.2 11.3 0.00 0.00 0.00 88 1009.7
20260510020114 25 92 3.2 11.3 0.00 0.00 0.00 88 1009.7
20260510020014 25 80 3.2 11.3 0.00 0.00 0.00 88 1009.6
20260510015915 25 121 3.2 11.3 0.00 0.00 0.00 88 1009.5
20260510015814 25 79 3.2 11.3 0.00 0.00 0.00 88 1009.5
20260510015714 25 42 3.2 11.3 0.00 0.00 0.00 88 1009.5
20260510015620 25 75 4.8 11.3 0.00 0.00 0.00 88 1009.5
20260510015614 25 170 4.8 11.3 0.00 0.00 0.00 87 1009.5
20260510015509 25 93 4.8 11.3 0.00 0.00 0.00 87 1009.5
20260510015407 25 84 4.8 11.3 0.00 0.00 0.00 87 1009.5
20260510015306 25 111 4.8 9.7 0.00 0.00 0.00 87 1009.5
20260510015204 25 130 4.8 9.7 0.00 0.00 0.00 87 1009.5
20260510015120 25 74 4.8 9.7 0.00 0.00 0.00 87 1009.5
20260510015104 25 77 4.8 9.7 0.00 0.00 0.00 86 1009.5
20260510015003 25 85 4.8 9.7 0.00 0.00 0.00 86 1009.5
20260510014904 25 69 4.8 9.7 0.00 0.00 0.00 86 1009.5
20260510014804 25 85 4.8 9.7 0.00 0.00 0.00 86 1009.5
20260510014704 25 101 4.8 9.7 0.00 0.00 0.00 85 1009.4
20260510014621 25 92 4.8 9.7 0.00 0.00 0.00 85 1009.4
20260510014601 25 130 4.8 9.7 0.00 0.00 0.00 85 1009.4
20260510014501 25 108 4.8 9.7 0.00 0.00 0.00 85 1009.4
20260510014402 25 100 4.8 9.7 0.00 0.00 0.00 85 1009.3
20260510014259 25 81 4.8 9.7 0.00 0.00 0.00 85 1009.2
20260510014159 25 107 4.8 9.7 0.00 0.00 0.00 85 1009.2
20260510014121 25 99 4.8 9.7 0.00 0.00 0.00 85 1009.2
20260510014059 25 105 4.8 8.0 0.00 0.00 0.00 84 1009.1
20260510013958 25 104 4.8 8.0 0.00 0.00 0.00 84 1009.0
20260510013858 25 110 3.2 8.0 0.00 0.00 0.00 84 1009.0
20260510013758 25 100 3.2 8.0 0.00 0.00 0.00 84 1009.0
20260510013703 25 90 3.2 8.0 0.00 0.00 0.00 83 1009.0
20260510013621 25 97 3.2 8.0 0.00 0.00 0.00 83 1009.0
20260510013558 25 85 3.2 8.0 0.00 0.00 0.00 83 1009.0
20260510013455 25 91 3.2 8.0 0.00 0.00 0.00 83 1009.0
20260510013346 25 102 3.2 6.4 0.00 0.00 0.00 83 1009.0
20260510013249 25 103 1.6 4.8 0.00 0.00 0.00 82 1009.0
20260510013147 25 99 1.6 4.8 0.00 0.00 0.00 82 1009.0
20260510013122 25 84 1.6 4.8 0.00 0.00 0.00 82 1009.0
20260510013046 25 29 1.6 4.8 0.00 0.00 0.00 82 1009.0
20260510012946 25 139 1.6 4.8 0.00 0.00 0.00 82 1009.0
20260510012846 25 119 1.6 4.8 0.00 0.00 0.00 82 1009.0
20260510012732 25 85 1.6 4.8 0.00 0.00 0.00 82 1009.0
20260510012640 25 81 1.6 4.8 0.00 0.00 0.00 82 1009.0
20260510012619 25 78 1.6 4.8 0.00 0.00 0.00 82 1009.0
20260510012528 25 79 1.6 4.8 0.00 0.00 0.00 82 1009.0
20260510012429 25 16 1.6 4.8 0.00 0.00 0.00 82 1009.0
20260510012336 25 0 1.6 4.8 0.00 0.00 0.00 81 1008.9
20260510012329 25 87 1.6 4.8 0.00 0.00 0.00 82 1009.0
20260510012225 25 0 1.6 4.8 0.00 0.00 0.00 81 1008.9
20260510012110 25 0 1.6 4.8 0.00 0.00 0.00 81 1008.9
20260510012011 25 79 1.6 4.8 0.00 0.00 0.00 81 1008.9
20260510011902 25 331 1.6 4.8 0.00 0.00 0.00 81 1008.9
20260510011801 25 0 1.6 4.8 0.00 0.00 0.00 81 1008.8
20260510011701 25 76 1.6 4.8 0.00 0.00 0.00 81 1008.7
20260510011614 25 86 1.6 6.4 0.00 0.00 0.00 81 1008.7
20260510011558 25 76 1.6 6.4 0.00 0.00 0.00 81 1008.7
20260510011500 26 0 1.6 6.4 0.00 0.00 0.00 81 1008.5
20260510011358 26 105 1.6 6.4 0.00 0.00 0.00 81 1008.5
20260510011259 26 70 3.2 6.4 0.00 0.00 0.00 81 1008.5
20260510011159 26 68 1.6 6.4 0.00 0.00 0.00 80 1008.4
20260510011113 26 60 1.6 6.4 0.00 0.00 0.00 80 1008.4
20260510011052 26 72 1.6 6.4 0.00 0.00 0.00 80 1008.4
20260510010950 26 84 1.6 6.4 0.00 0.00 0.00 80 1008.3
20260510010850 26 0 1.6 6.4 0.00 0.00 0.00 80 1008.3
20260510010747 26 116 1.6 6.4 0.00 0.00 0.00 79 1008.3
20260510010644 26 112 1.6 6.4 0.00 0.00 0.00 79 1008.3
20260510010609 26 151 1.6 6.4 0.00 0.00 0.00 79 1008.3
20260510010541 26 77 1.6 6.4 0.00 0.00 0.00 79 1008.3
20260510010441 26 81 1.6 6.4 0.00 0.00 0.00 78 1008.3
20260510010337 26 283 1.6 6.4 0.00 0.00 0.00 78 1008.3
20260510010234 26 0 1.6 6.4 0.00 0.00 0.00 78 1008.3
20260510010135 26 176 1.6 6.4 0.00 0.00 0.00 78 1008.3
20260510010110 26 47 1.6 6.4 0.00 0.00 0.00 78 1008.3
20260510010031 26 227 1.6 6.4 0.00 0.00 0.00 78 1008.3
20260510005925 26 193 1.6 6.4 0.00 0.00 0.00 77 1008.3
20260510005823 26 175 1.6 6.4 0.00 0.00 0.00 77 1008.3
20260510005722 26 76 3.2 6.4 0.00 0.00 0.00 77 1008.3
20260510005623 26 157 3.2 6.4 0.00 0.00 0.00 77 1008.3
20260510005606 26 242 3.2 6.4 0.00 0.00 0.00 76 1008.4
20260510005518 26 110 3.2 6.4 0.00 0.00 0.00 76 1008.4
20260510005416 26 157 1.6 6.4 0.00 0.00 0.00 76 1008.4
20260510005316 26 189 3.2 8.0 0.00 0.00 0.00 76 1008.4
20260510005215 26 250 3.2 8.0 0.00 0.00 0.00 76 1008.4
20260510005114 26 135 3.2 8.0 0.00 0.00 0.00 75 1008.5
20260510005107 26 156 3.2 8.0 0.00 0.00 0.00 75 1008.5
20260510005014 26 185 3.2 8.0 0.00 0.00 0.00 75 1008.5
20260510004914 26 101 3.2 9.7 0.00 0.00 0.00 75 1008.5
20260510004826 26 107 3.2 12.9 0.00 0.00 0.00 74 1008.5
20260510004815 26 105 3.2 9.7 0.00 0.00 0.00 75 1008.5
20260510004718 26 176 3.2 9.7 0.00 0.00 0.00 75 1008.5
20260510004712 26 107 3.2 12.9 0.00 0.00 0.00 74 1008.5
20260510004505 27 134 3.2 12.9 0.00 0.00 0.00 74 1008.5
20260510004402 27 150 3.2 12.9 0.00 0.00 0.00 74 1008.5
20260510004259 27 116 3.2 12.9 0.00 0.00 0.00 74 1008.5
20260510004156 27 172 3.2 12.9 0.00 0.00 0.00 74 1008.5
20260510004107 27 102 3.2 12.9 0.00 0.00 0.00 73 1008.6
20260510004054 27 187 3.2 12.9 0.00 0.00 0.00 73 1008.6
20260510003954 27 99 3.2 12.9 0.00 0.00 0.00 73 1008.6
20260510003853 27 283 3.2 12.9 0.00 0.00 0.00 73 1008.6
20260510003753 27 82 3.2 12.9 0.00 0.00 0.00 73 1008.6
20260510003653 27 111 3.2 12.9 0.00 0.00 0.00 72 1008.6
20260510003607 27 91 3.2 12.9 0.00 0.00 0.00 72 1008.6
20260510003548 27 173 3.2 12.9 0.00 0.00 0.00 72 1008.6
20260510003444 27 141 3.2 8.0 0.00 0.00 0.00 71 1008.6
20260510003344 27 102 3.2 9.7 0.00 0.00 0.00 71 1008.6
20260510003244 27 130 3.2 11.3 0.00 0.00 0.00 70 1008.6
20260510003144 27 101 3.2 11.3 0.00 0.00 0.00 69 1008.5
20260510003104 27 90 3.2 11.3 0.00 0.00 0.00 69 1008.5
20260510003044 27 81 3.2 11.3 0.00 0.00 0.00 69 1008.5
20260510002944 27 217 3.2 11.3 0.00 0.00 0.00 69 1008.5
20260510002845 27 110 3.2 14.5 0.00 0.00 0.00 67 1008.5
20260510002744 27 118 3.2 14.5 0.00 0.00 0.00 67 1008.5
20260510002644 28 89 3.2 14.5 0.00 0.00 0.00 66 1008.5
20260510002603 28 71 3.2 14.5 0.00 0.00 0.00 66 1008.5
20260510002541 28 99 3.2 14.5 0.00 0.00 0.00 66 1008.5
20260510002438 28 216 3.2 14.5 0.00 0.00 0.00 66 1008.5
20260510002338 28 96 3.2 14.5 0.00 0.00 0.00 65 1008.5
20260510002238 28 12 3.2 14.5 0.00 0.00 0.00 65 1008.5
20260510002138 28 73 3.2 14.5 0.00 0.00 0.00 65 1008.5
20260510002059 28 106 3.2 14.5 0.00 0.00 0.00 64 1008.4
20260510002032 28 118 3.2 14.5 0.00 0.00 0.00 64 1008.4
20260510001932 28 111 3.2 14.5 0.00 0.00 0.00 64 1008.5
20260510001833 28 107 3.2 12.9 0.00 0.00 0.00 63 1008.5
20260510001733 28 101 3.2 12.9 0.00 0.00 0.00 63 1008.5
20260510001632 28 110 3.2 11.3 0.00 0.00 0.00 63 1008.5
20260510001559 28 86 3.2 11.3 0.00 0.00 0.00 62 1008.5
20260510001532 28 87 3.2 11.3 0.00 0.00 0.00 62 1008.5
20260510001432 28 73 3.2 11.3 0.00 0.00 0.00 62 1008.5
20260510001332 28 112 3.2 11.3 0.00 0.00 0.00 62 1008.5
20260510001232 28 100 3.2 11.3 0.00 0.00 0.00 61 1008.5
20260510001132 28 82 3.2 11.3 0.00 0.00 0.00 61 1008.5
20260510001056 28 97 3.2 11.3 0.00 0.00 0.00 60 1008.4
20260510001032 28 140 3.2 11.3 0.00 0.00 0.00 60 1008.4
20260510000933 28 155 3.2 8.0 0.00 0.00 0.00 60 1008.4
20260510000833 28 200 3.2 8.0 0.00 0.00 0.00 60 1008.3
20260510000730 28 100 3.2 8.0 0.00 0.00 0.00 60 1008.3
20260510000630 29 174 3.2 9.7 0.00 0.00 0.00 59 1008.3
20260510000556 29 259 3.2 9.7 0.00 0.00 0.00 60 1008.3
20260510000529 29 111 3.2 9.7 0.00 0.00 0.00 60 1008.3
20260510000426 29 64 3.2 9.7 0.00 0.00 0.00 59 1008.2
20260510000322 29 178 3.2 9.7 0.00 0.00 0.00 59 1008.2
20260510000221 29 39 3.2 12.9 0.00 0.00 0.00 59 1008.1
20260510000118 29 142 3.2 12.9 0.00 0.00 0.00 59 1008.1
20260510000055 29 142 3.2 12.9 0.00 0.00 0.00 58 1008.1
20260510000018 29 98 3.2 12.9 0.00 0.00 0.00 58 1008.1
20260509235918 29 86 3.2 12.9 0.00 0.00 0.00 58 1008.1
20260509235816 29 215 4.8 14.5 0.00 0.00 0.00 59 1008.1
20260509235715 29 108 4.8 14.5 0.00 0.00 0.00 59 1008.0
20260509235612 29 97 4.8 14.5 0.00 0.00 0.00 59 1008.0
20260509235553 29 22 4.8 14.5 0.00 0.00 0.00 59 1008.0
20260509235512 29 82 4.8 14.5 0.00 0.00 0.00 59 1008.0
20260509235405 29 187 4.8 14.5 0.00 0.00 0.00 59 1008.0
20260509235307 29 91 4.8 14.5 0.00 0.00 0.00 59 1008.0
20260509235206 30 110 4.8 14.5 0.00 0.00 0.00 58 1008.0
20260509235103 30 71 4.8 14.5 0.00 0.00 0.00 58 1008.0
20260509235047 30 105 4.8 14.5 0.00 0.00 0.00 58 1008.0
20260509235003 30 126 4.8 14.5 0.00 0.00 0.00 58 1007.9
20260509234900 30 140 4.8 12.9 0.00 0.00 0.00 58 1007.9
20260509234800 30 112 3.2 11.3 0.00 0.00 0.00 58 1007.9
20260509234659 30 99 3.2 12.9 0.00 0.00 0.00 58 1007.9
20260509234559 30 110 3.2 12.9 0.00 0.00 0.00 59 1007.9
20260509234543 30 98 3.2 12.9 0.00 0.00 0.00 59 1007.9
20260509234537 30 71 3.2 12.9 0.00 0.00 0.00 58 1007.8
20260509234500 30 58 3.2 12.9 0.00 0.00 0.00 58 1007.9
20260509234419 30 83 3.2 12.9 0.00 0.00 0.00 58 1007.9
20260509234300 30 113 3.2 12.9 0.00 0.00 0.00 58 1007.9
20260509234200 30 144 3.2 12.9 0.00 0.00 0.00 58 1007.8
20260509234150 30 82 3.2 12.9 0.00 0.00 0.00 58 1007.8
20260509234000 30 104 3.2 12.9 0.00 0.00 0.00 58 1007.8
20260509233859 30 97 3.2 12.9 0.00 0.00 0.00 58 1007.8
20260509233800 30 178 3.2 12.9 0.00 0.00 0.00 57 1007.8
20260509233657 30 106 3.2 12.9 0.00 0.00 0.00 57 1007.8
20260509233554 30 109 3.2 11.3 0.00 0.00 0.00 57 1007.8
20260509233544 30 88 3.2 11.3 0.00 0.00 0.00 57 1007.8
20260509233454 30 50 3.2 11.3 0.00 0.00 0.00 57 1007.8
20260509233354 30 146 3.2 9.7 0.00 0.00 0.00 58 1007.7
20260509233251 30 88 3.2 9.7 0.00 0.00 0.00 58 1007.7
20260509233151 30 105 3.2 9.7 0.00 0.00 0.00 57 1007.7
20260509233051 30 87 3.2 9.7 0.00 0.00 0.00 57 1007.8
20260509233045 30 104 3.2 9.7 0.00 0.00 0.00 57 1007.8
20260509232951 30 204 3.2 9.7 0.00 0.00 0.00 58 1007.8
20260509232852 30 153 3.2 9.7 0.00 0.00 0.00 58 1007.8
20260509232751 30 187 3.2 9.7 0.00 0.00 0.00 58 1007.8
20260509232648 30 94 3.2 9.7 0.00 0.00 0.00 58 1007.9
20260509232548 30 92 3.2 6.4 0.00 0.00 0.00 58 1007.9
20260509232540 30 85 3.2 6.4 0.00 0.00 0.00 58 1007.9
20260509232445 30 144 1.6 6.4 0.00 0.00 0.00 58 1007.9
20260509232345 30 125 3.2 6.4 0.00 0.00 0.00 58 1007.9
20260509232315 -17 330 1.6 1.6 0.00 0.00 0.00
20260509232246 30 79 3.2 6.4 0.00 0.00 0.00 59 1007.9
20260509232219 31 171 6.4 14.5 0.00 0.00 0.00 61 1007.7
20260509232215 30 136 1.6 4.8 0.00 0.00 0.00 60 1007.9
20260509232209 -17 330 1.6 1.6 0.00 0.00 0.00
20260509230625 31 97 6.4 14.5 0.00 0.00 0.00 61 1007.7
20260509230553 31 74 4.8 14.5 0.00 0.00 0.00 61 1007.7
20260509230524 31 169 6.4 14.5 0.00 0.00 0.00 62 1007.7
20260509230438 31 78 6.4 14.5 0.00 0.00 0.00 62 1007.7
20260509230325 31 169 4.8 14.5 0.00 0.00 0.00 61 1007.7
20260509230225 31 76 4.8 14.5 0.00 0.00 0.00 61 1007.7
20260509230122 31 89 4.8 14.5 0.00 0.00 0.00 62 1007.7
20260509230021 31 94 4.8 14.5 0.00 0.00 0.00 61 1007.7
20260509225921 31 106 4.8 11.3 0.00 0.00 0.00 61 1007.7
20260509225833 31 66 4.8 11.3 0.00 0.00 0.00 62 1007.7
20260509225819 31 117 4.8 11.3 0.00 0.00 0.00 62 1007.7
20260509225718 31 251 4.8 11.3 0.00 0.00 0.00 62 1007.7
20260509225617 31 118 3.2 11.3 0.00 0.00 0.00 61 1007.7
20260509225516 31 80 3.2 11.3 0.00 0.00 0.00 62 1007.7
20260509225415 31 126 3.2 11.3 0.00 0.00 0.00 62 1007.7
20260509225329 31 79 3.2 9.7 0.00 0.00 0.00 62 1007.7
20260509225315 31 103 3.2 9.7 0.00 0.00 0.00 62 1007.7
20260509225215 31 188 3.2 9.7 0.00 0.00 0.00 63 1007.7
20260509225113 31 49 3.2 11.3 0.00 0.00 0.00 63 1007.7
20260509225009 31 79 3.2 11.3 0.00 0.00 0.00 63 1007.7
20260509224906 31 114 3.2 11.3 0.00 0.00 0.00 64 1007.7
20260509224827 31 193 3.2 11.3 0.00 0.00 0.00 64 1007.7
20260509224804 32 102 4.8 11.3 0.00 0.00 0.00 63 1007.6
20260509224701 32 116 4.8 11.3 0.00 0.00 0.00 63 1007.6
20260509224558 32 164 4.8 11.3 0.00 0.00 0.00 63 1007.6
20260509224457 32 90 4.8 11.3 0.00 0.00 0.00 63 1007.6
20260509224357 32 17 4.8 11.3 0.00 0.00 0.00 63 1007.6
20260509224326 32 58 4.8 11.3 0.00 0.00 0.00 63 1007.6
20260509224255 32 124 4.8 11.3 0.00 0.00 0.00 62 1007.6
20260509224152 32 90 4.8 11.3 0.00 0.00 0.00 62 1007.6
20260509224052 32 119 3.2 11.3 0.00 0.00 0.00 61 1007.6
20260509223949 32 46 3.2 11.3 0.00 0.00 0.00 62 1007.5
20260509223846 32 105 3.2 11.3 0.00 0.00 0.00 61 1007.5
20260509223827 32 87 3.2 11.3 0.00 0.00 0.00 61 1007.5
20260509223746 32 59 3.2 11.3 0.00 0.00 0.00 61 1007.5
20260509223646 32 97 3.2 11.3 0.00 0.00 0.00 61 1007.5
20260509223543 32 63 3.2 11.3 0.00 0.00 0.00 60 1007.5
20260509223443 33 195 1.6 11.3 0.00 0.00 0.00 58 1007.5
20260509223340 33 98 1.6 9.7 0.00 0.00 0.00 56 1007.5
20260509223326 33 85 1.6 6.4 0.00 0.00 0.00 56 1007.5
20260509223240 33 102 1.6 6.4 0.00 0.00 0.00 55 1007.5
20260509223139 33 104 1.6 6.4 0.00 0.00 0.00 55 1007.5
20260509223040 33 167 1.6 6.4 0.00 0.00 0.00 55 1007.5
20260509222940 33 199 1.6 6.4 0.00 0.00 0.00 57 1007.6
20260509222840 32 142 1.6 6.4 0.00 0.00 0.00 57 1007.6
20260509222827 32 323 1.6 6.4 0.00 0.00 0.00 57 1007.6
20260509222740 32 74 1.6 6.4 0.00 0.00 0.00 56 1007.6
20260509222640 32 90 1.6 6.4 0.00 0.00 0.00 57 1007.6
20260509222556 32 163 3.2 6.4 0.00 0.00 0.00 59 1007.5
20260509222537 32 18 3.2 6.4 0.00 0.00 0.00 57 1007.6
20260509222439 32 280 3.2 6.4 0.00 0.00 0.00 56 1007.5
20260509222433 32 222 3.2 6.4 0.00 0.00 0.00 59 1007.5
20260509222237 32 209 3.2 6.4 0.00 0.00 0.00 59 1007.5
20260509222138 32 99 3.2 6.4 0.00 0.00 0.00 59 1007.5
20260509222036 32 119 3.2 6.4 0.00 0.00 0.00 59 1007.5
20260509221935 32 58 3.2 6.4 0.00 0.00 0.00 58 1007.5
20260509221834 33 129 3.2 6.4 0.00 0.00 0.00 56 1007.5
20260509221824 33 135 3.2 6.4 0.00 0.00 0.00 56 1007.5
20260509221734 33 104 3.2 6.4 0.00 0.00 0.00 56 1007.5
20260509221634 33 40 1.6 6.4 0.00 0.00 0.00 56 1007.5
20260509221531 33 60 1.6 6.4 0.00 0.00 0.00 57 1007.5
20260509221431 33 65 1.6 3.2 0.00 0.00 0.00 57 1007.5
20260509221331 33 90 1.6 3.2 0.00 0.00 0.00 55 1007.5
20260509221324 33 125 1.6 3.2 0.00 0.00 0.00 55 1007.5
20260509221228 33 172 1.6 3.2 0.00 0.00 0.00 56 1007.5
20260509221125 33 1 1.6 3.2 0.00 0.00 0.00 56 1007.5
20260509221022 33 151 1.6 3.2 0.00 0.00 0.00 56 1007.5
20260509220918 32 0 1.6 3.2 0.00 0.00 0.00 56 1007.5
20260509220825 32 344 1.6 3.2 0.00 0.00 0.00 56 1007.5
20260509220817 32 351 1.6 3.2 0.00 0.00 0.00 56 1007.5
20260509220713 32 0 1.6 3.2 0.00 0.00 0.00 60 1007.4
20260509220613 32 343 1.6 3.2 0.00 0.00 0.00 60 1007.4
20260509220514 32 263 1.6 4.8 0.00 0.00 0.00 57 1007.4
20260509220414 32 275 1.6 4.8 0.00 0.00 0.00 57 1007.4
20260509220324 32 92 1.6 4.8 0.00 0.00 0.00 57 1007.4
20260509220314 32 181 1.6 4.8 0.00 0.00 0.00 57 1007.4
20260509220215 32 188 1.6 4.8 0.00 0.00 0.00 58 1007.4
20260509220113 32 253 1.6 4.8 0.00 0.00 0.00 58 1007.4
20260509220013 32 104 1.6 4.8 0.00 0.00 0.00 58 1007.4
20260509215914 32 156 1.6 4.8 0.00 0.00 0.00 59 1007.4
20260509215818 32 0 1.6 4.8 0.00 0.00 0.00 59 1007.4
20260509215812 32 72 1.6 4.8 0.00 0.00 0.00 59 1007.4
20260509215713 32 0 1.6 6.4 0.00 0.00 0.00 58 1007.3
20260509215613 32 234 1.6 8.0 0.00 0.00 0.00 58 1007.3
20260509215514 32 71 3.2 8.0 0.00 0.00 0.00 58 1007.4
20260509215408 32 71 3.2 8.0 0.00 0.00 0.00 58 1007.4
20260509215316 32 42 3.2 8.0 0.00 0.00 0.00 57 1007.5
20260509215255 32 46 3.2 8.0 0.00 0.00 0.00 57 1007.5
20260509215155 32 32 3.2 8.0 0.00 0.00 0.00 57 1007.5
20260509215056 32 91 3.2 8.0 0.00 0.00 0.00 57 1007.5
20260509214931 32 122 3.2 8.0 0.00 0.00 0.00 57 1007.5
20260509214823 32 73 3.2 8.0 0.00 0.00 0.00 58 1007.5
20260509214812 32 94 3.2 8.0 0.00 0.00 0.00 58 1007.5
20260509214722 32 152 3.2 8.0 0.00 0.00 0.00 58 1007.5
20260509214622 33 86 3.2 8.0 0.00 0.00 0.00 56 1007.5
20260509214536 33 171 1.6 3.2 0.00 0.00 0.00 56 1007.5
20260509214522 33 95 1.6 6.4 0.00 0.00 0.00 56 1007.5
20260509214424 33 45 1.6 4.8 0.00 0.00 0.00 56 1007.5
20260509214418 33 158 1.6 3.2 0.00 0.00 0.00 56 1007.5
20260509214217 33 188 1.6 6.4 0.00 0.00 0.00 56 1007.5
20260509214111 33 25 1.6 6.4 0.00 0.00 0.00 57 1007.5
20260509214008 32 70 1.6 6.4 0.00 0.00 0.00 58 1007.5
20260509213904 32 0 1.6 6.4 0.00 0.00 0.00 57 1007.5
20260509213812 32 339 1.6 9.7 0.00 0.00 0.00 57 1007.5
20260509213755 32 16 1.6 9.7 0.00 0.00 0.00 57 1007.5
20260509213652 32 322 3.2 9.7 0.00 0.00 0.00 57 1007.5
20260509213552 32 0 3.2 9.7 0.00 0.00 0.00 58 1007.4
20260509213446 32 221 3.2 9.7 0.00 0.00 0.00 59 1007.4
20260509213344 32 179 3.2 9.7 0.00 0.00 0.00 59 1007.4
20260509213309 32 130 3.2 9.7 0.00 0.00 0.00 57 1007.4
20260509213241 32 90 3.2 9.7 0.00 0.00 0.00 57 1007.4
20260509213135 32 82 3.2 9.7 0.00 0.00 0.00 59 1007.4
20260509213034 32 162 3.2 9.7 0.00 0.00 0.00 59 1007.4
20260509213022 33 108 3.2 9.7 0.00 0.00 0.00 58 1007.4
20260509212929 32 77 3.2 9.7 0.00 0.00 0.00 58 1007.4
20260509212912 32 67 3.2 9.7 0.00 0.00 0.00 58 1007.4
20260509212729 33 91 1.6 8.0 0.00 0.00 0.00 58 1007.4
20260509212626 33 93 1.6 8.0 0.00 0.00 0.00 57 1007.4
20260509212526 33 209 1.6 8.0 0.00 0.00 0.00 57 1007.4
20260509212426 33 71 1.6 4.8 0.00 0.00 0.00 57 1007.4
20260509212326 33 80 1.6 4.8 0.00 0.00 0.00 59 1007.4
20260509212307 33 79 1.6 4.8 0.00 0.00 0.00 59 1007.4
20260509212225 33 93 1.6 4.8 0.00 0.00 0.00 59 1007.4
20260509212122 33 56 1.6 4.8 0.00 0.00 0.00 59 1007.4
20260509212019 33 184 1.6 4.8 0.00 0.00 0.00 58 1007.4
20260509211914 33 36 1.6 4.8 0.00 0.00 0.00 58 1007.4
20260509211814 33 73 1.6 4.8 0.00 0.00 0.00 59 1007.4
20260509211806 33 0 1.6 4.8 0.00 0.00 0.00 59 1007.4
20260509211714 33 171 1.6 4.8 0.00 0.00 0.00 59 1007.4
20260509211611 33 344 1.6 4.8 0.00 0.00 0.00 59 1007.4
20260509211503 33 0 1.6 4.8 0.00 0.00 0.00 59 1007.4
20260509211355 33 223 1.6 4.8 0.00 0.00 0.00 59 1007.4
20260509211309 33 21 1.6 4.8 0.00 0.00 0.00 60 1007.4
20260509211253 33 6 1.6 4.8 0.00 0.00 0.00 60 1007.4
20260509211153 33 35 1.6 4.8 0.00 0.00 0.00 60 1007.4
20260509211053 33 333 1.6 4.8 0.00 0.00 0.00 60 1007.4
20260509210953 33 268 1.6 4.8 0.00 0.00 0.00 60 1007.4
20260509210852 33 32 1.6 4.8 0.00 0.00 0.00 58 1007.4
20260509210804 32 14 1.6 4.8 0.00 0.00 0.00 59 1007.4
20260509210754 32 25 1.6 4.8 0.00 0.00 0.00 59 1007.4
20260509210649 32 0 1.6 4.8 0.00 0.00 0.00 60 1007.4
20260509210550 32 334 1.6 4.8 0.00 0.00 0.00 60 1007.4
20260509210447 32 170 1.6 4.8 0.00 0.00 0.00 60 1007.4
20260509210347 32 41 1.6 4.8 0.00 0.00 0.00 60 1007.4
20260509210301 32 0 1.6 4.8 0.00 0.00 0.00 59 1007.4
20260509210244 32 0 1.6 4.8 0.00 0.00 0.00 59 1007.4
20260509210141 32 31 1.6 4.8 0.00 0.00 0.00 59 1007.5
20260509210041 32 103 1.6 4.8 0.00 0.00 0.00 62 1007.5
20260509205941 32 241 1.6 4.8 0.00 0.00 0.00 62 1007.5
20260509205841 32 194 1.6 4.8 0.00 0.00 0.00 62 1007.5
20260509205754 32 0 1.6 4.8 0.00 0.00 0.00 62 1007.5
20260509205740 32 344 1.6 4.8 0.00 0.00 0.00 62 1007.5
20260509205638 32 34 1.6 4.8 0.00 0.00 0.00 61 1007.5
20260509205538 32 70 1.6 6.4 0.00 0.00 0.00 61 1007.5
20260509205432 32 64 1.6 6.4 0.00 0.00 0.00 61 1007.5
20260509205329 32 349 3.2 6.4 0.00 0.00 0.00 61 1007.5
20260509205252 32 67 3.2 8.0 0.00 0.00 0.00 62 1007.5
20260509205229 32 65 3.2 8.0 0.00 0.00 0.00 62 1007.5
20260509205130 32 85 3.2 8.0 0.00 0.00 0.00 62 1007.5
20260509205030 32 37 3.2 8.0 0.00 0.00 0.00 63 1007.5
20260509204926 32 0 3.2 8.0 0.00 0.00 0.00 62 1007.5
20260509204828 32 183 3.2 8.0 0.00 0.00 0.00 62 1007.5
20260509204752 32 9 3.2 8.0 0.00 0.00 0.00 63 1007.5
20260509204723 32 58 3.2 8.0 0.00 0.00 0.00 63 1007.5
20260509204624 32 96 3.2 8.0 0.00 0.00 0.00 62 1007.5
20260509204524 32 36 3.2 8.0 0.00 0.00 0.00 60 1007.5
20260509204424 32 80 3.2 8.0 0.00 0.00 0.00 60 1007.6
20260509204324 32 100 3.2 6.4 0.00 0.00 0.00 60 1007.6
20260509204253 32 77 1.6 6.4 0.00 0.00 0.00 60 1007.6
20260509204221 32 130 1.6 4.8 0.00 0.00 0.00 60 1007.6
20260509204121 32 7 1.6 4.8 0.00 0.00 0.00 59 1007.6
20260509204021 32 16 1.6 4.8 0.00 0.00 0.00 59 1007.6
20260509203921 32 4 1.6 4.8 0.00 0.00 0.00 59 1007.6
20260509203820 32 204 1.6 4.8 0.00 0.00 0.00 58 1007.7
20260509203752 32 196 1.6 4.8 0.00 0.00 0.00 58 1007.7
20260509203719 32 359 1.6 4.8 0.00 0.00 0.00 61 1007.7
20260509203609 32 160 1.6 4.8 0.00 0.00 0.00 60 1007.7
20260509203509 32 277 1.6 4.8 0.00 0.00 0.00 62 1007.7
20260509203409 32 26 1.6 4.8 0.00 0.00 0.00 61 1007.7
20260509203306 32 150 1.6 6.4 0.00 0.00 0.00 62 1007.9
20260509203300 32 242 1.6 4.8 0.00 0.00 0.00 60 1007.8
20260509203253 32 74 1.6 4.8 0.00 0.00 0.00 60 1007.8
20260509203200 32 53 1.6 4.8 0.00 0.00 0.00 62 1007.8
20260509203141 32 35 1.6 4.8 0.00 0.00 0.00 61 1007.8
20260509202956 32 65 1.6 4.8 0.00 0.00 0.00 61 1007.8
20260509202923 32 192 1.6 6.4 0.00 0.00 0.00 62 1007.9
20260509202918 32 150 1.6 6.4 0.00 0.00 0.00 62 1007.9
20260509201921 32 223 3.2 6.4 0.00 0.00 0.00 62 1007.9
20260509201821 32 194 1.6 6.4 0.00 0.00 0.00 63 1008.0
20260509201728 32 126 1.6 6.4 0.00 0.00 0.00 63 1008.0
20260509201719 32 258 1.6 6.4 0.00 0.00 0.00 62 1008.0
20260509201620 32 105 1.6 6.4 0.00 0.00 0.00 63 1008.0
20260509201519 32 78 1.6 6.4 0.00 0.00 0.00 63 1008.0
20260509201412 32 111 1.6 6.4 0.00 0.00 0.00 64 1008.0
20260509201312 32 59 1.6 6.4 0.00 0.00 0.00 63 1008.0
20260509201226 32 76 1.6 6.4 0.00 0.00 0.00 63 1008.0
20260509201209 32 117 1.6 6.4 0.00 0.00 0.00 63 1008.0
20260509201109 32 65 1.6 4.8 0.00 0.00 0.00 62 1008.0
20260509201006 32 87 1.6 4.8 0.00 0.00 0.00 62 1008.0
20260509200907 32 77 1.6 4.8 0.00 0.00 0.00 63 1008.0
20260509200805 32 182 1.6 4.8 0.00 0.00 0.00 62 1008.0
20260509200723 32 154 1.6 4.8 0.00 0.00 0.00 62 1008.0
20260509200706 32 349 1.6 4.8 0.00 0.00 0.00 61 1008.0
20260509200603 32 185 1.6 4.8 0.00 0.00 0.00 62 1008.0
20260509200503 31 232 1.6 4.8 0.00 0.00 0.00 66 1008.1
20260509200403 31 198 1.6 8.0 0.00 0.00 0.00 66 1008.1
20260509200303 31 259 1.6 8.0 0.00 0.00 0.00 66 1008.1
20260509200219 31 6 1.6 8.0 0.00 0.00 0.00 66 1008.1
20260509200203 31 5 1.6 8.0 0.00 0.00 0.00 66 1008.1
20260509200103 31 339 1.6 8.0 0.00 0.00 0.00 66 1008.1
20260509195956 31 99 3.2 8.0 0.00 0.00 0.00 67 1008.1
20260509195858 31 97 3.2 8.0 0.00 0.00 0.00 67 1008.1
20260509195756 31 355 3.2 8.0 0.00 0.00 0.00 67 1008.1
20260509195720 31 23 3.2 8.0 0.00 0.00 0.00 67 1008.1
20260509195653 31 0 3.2 8.0 0.00 0.00 0.00 67 1008.1
20260509195551 31 134 3.2 8.0 0.00 0.00 0.00 67 1008.1
20260509195451 31 51 3.2 8.0 0.00 0.00 0.00 66 1008.1
20260509195351 32 96 3.2 8.0 0.00 0.00 0.00 66 1008.1
20260509195251 32 184 3.2 6.4 0.00 0.00 0.00 66 1008.1
20260509195220 32 57 1.6 6.4 0.00 0.00 0.00 66 1008.1
20260509195151 32 21 1.6 6.4 0.00 0.00 0.00 66 1008.2
20260509195051 32 282 1.6 6.4 0.00 0.00 0.00 65 1008.2
20260509194951 32 66 1.6 6.4 0.00 0.00 0.00 66 1008.2
20260509194851 32 35 1.6 4.8 0.00 0.00 0.00 64 1008.2
20260509194751 32 53 1.6 3.2 0.00 0.00 0.00 64 1008.2
20260509194720 32 58 1.6 3.2 0.00 0.00 0.00 64 1008.2
20260509194651 32 75 1.6 3.2 0.00 0.00 0.00 64 1008.2
20260509194550 32 324 1.6 3.2 0.00 0.00 0.00 63 1008.2
20260509194451 32 262 1.6 4.8 0.00 0.00 0.00 65 1008.2
20260509194352 32 44 1.6 4.8 0.00 0.00 0.00 65 1008.3
20260509194252 32 12 1.6 4.8 0.00 0.00 0.00 65 1008.3
20260509194220 32 20 1.6 4.8 0.00 0.00 0.00 65 1008.3
20260509194151 32 0 1.6 4.8 0.00 0.00 0.00 64 1008.2
20260509194048 32 260 1.6 4.8 0.00 0.00 0.00 64 1008.2
20260509193945 31 252 1.6 4.8 0.00 0.00 0.00 64 1008.2
20260509193845 31 30 1.6 4.8 0.00 0.00 0.00 64 1008.2
20260509193745 31 161 1.6 6.4 0.00 0.00 0.00 64 1008.2
20260509193720 31 23 1.6 6.4 0.00 0.00 0.00 64 1008.2
20260509193646 31 335 1.6 6.4 0.00 0.00 0.00 64 1008.2
20260509193545 31 335 3.2 8.0 0.00 0.00 0.00 64 1008.2
20260509193446 31 347 1.6 8.0 0.00 0.00 0.00 65 1008.3
20260509193346 31 329 1.6 8.0 0.00 0.00 0.00 65 1008.3
20260509193246 31 318 3.2 8.0 0.00 0.00 0.00 65 1008.3
20260509193220 31 0 3.2 8.0 0.00 0.00 0.00 65 1008.3
20260509193145 31 228 3.2 8.0 0.00 0.00 0.00 65 1008.3
20260509193045 31 218 1.6 8.0 0.00 0.00 0.00 67 1008.3
20260509192945 31 261 1.6 8.0 0.00 0.00 0.00 67 1008.3
20260509192840 31 224 1.6 8.0 0.00 0.00 0.00 66 1008.3
20260509192741 31 153 1.6 8.0 0.00 0.00 0.00 65 1008.3
20260509192721 31 121 1.6 8.0 0.00 0.00 0.00 65 1008.3
20260509192640 31 103 1.6 8.0 0.00 0.00 0.00 65 1008.3
20260509192530 31 323 1.6 6.4 0.00 0.00 0.00 65 1008.3
20260509192420 31 53 1.6 6.4 0.00 0.00 0.00 68 1008.3
20260509192307 31 25 1.6 6.4 0.00 0.00 0.00 68 1008.3
20260509192221 31 5 1.6 6.4 0.00 0.00 0.00 68 1008.3
20260509192204 31 72 1.6 6.4 0.00 0.00 0.00 68 1008.3
20260509192104 31 55 1.6 6.4 0.00 0.00 0.00 67 1008.4
20260509192004 31 203 1.6 6.4 0.00 0.00 0.00 67 1008.4
20260509191849 31 110 1.6 6.4 0.00 0.00 0.00 67 1008.4
20260509191746 31 204 1.6 6.4 0.00 0.00 0.00 67 1008.4
20260509191719 31 47 1.6 4.8 0.00 0.00 0.00 69 1008.4
20260509191646 31 205 1.6 8.0 0.00 0.00 0.00 69 1008.4
20260509191546 31 0 1.6 8.0 0.00 0.00 0.00 70 1008.4
20260509191446 31 0 3.2 8.0 0.00 0.00 0.00 69 1008.4
20260509191343 31 212 3.2 8.0 0.00 0.00 0.00 68 1008.3
20260509191237 31 78 3.2 8.0 0.00 0.00 0.00 68 1008.3
20260509191219 31 93 3.2 8.0 0.00 0.00 0.00 70 1008.3
20260509191137 31 256 3.2 8.0 0.00 0.00 0.00 70 1008.3
20260509191037 31 195 3.2 8.0 0.00 0.00 0.00 68 1008.3
20260509190944 31 358 3.2 8.0 0.00 0.00 0.00 67 1008.3
20260509190934 31 329 3.2 8.0 0.00 0.00 0.00 68 1008.3
20260509190831 31 341 3.2 8.0 0.00 0.00 0.00 68 1008.3
20260509190824 31 14 3.2 8.0 0.00 0.00 0.00 68 1008.3
20260509190631 31 230 1.6 8.0 0.00 0.00 0.00 67 1008.3
20260509190531 31 310 1.6 6.4 0.00 0.00 0.00 67 1008.3
20260509190428 31 229 1.6 6.4 0.00 0.00 0.00 67 1008.3
20260509190327 31 243 1.6 6.4 0.00 0.00 0.00 65 1008.3
20260509190228 31 249 1.6 4.8 0.00 0.00 0.00 66 1008.3
20260509190220 31 226 1.6 4.8 0.00 0.00 0.00 69 1008.3
20260509190125 31 334 1.6 4.8 0.00 0.00 0.00 69 1008.3
20260509190022 31 116 1.6 4.8 0.00 0.00 0.00 69 1008.3
20260509185922 31 335 1.6 4.8 0.00 0.00 0.00 69 1008.4
20260509185821 31 261 1.6 6.4 0.00 0.00 0.00 69 1008.4
20260509185721 31 296 1.6 6.4 0.00 0.00 0.00 70 1008.4
20260509185619 31 342 3.2 6.4 0.00 0.00 0.00 70 1008.4
20260509185519 31 319 3.2 8.0 0.00 0.00 0.00 71 1008.4
20260509185420 30 316 3.2 8.0 0.00 0.00 0.00 72 1008.4
20260509185319 30 341 3.2 8.0 0.00 0.00 0.00 71 1008.4
20260509185220 30 329 3.2 8.0 0.00 0.00 0.00 69 1008.4
20260509185119 30 324 3.2 8.0 0.00 0.00 0.00 69 1008.4
20260509185019 30 53 3.2 8.0 0.00 0.00 0.00 68 1008.5
20260509184919 30 70 3.2 8.0 0.00 0.00 0.00 68 1008.5
20260509184819 30 117 3.2 8.0 0.00 0.00 0.00 69 1008.6
20260509184719 30 9 3.2 8.0 0.00 0.00 0.00 70 1008.6
20260509184619 30 325 3.2 8.0 0.00 0.00 0.00 70 1008.6
20260509184519 31 344 3.2 8.0 0.00 0.00 0.00 71 1008.6
20260509184420 31 76 1.6 6.4 0.00 0.00 0.00 69 1008.6
20260509184316 31 32 1.6 6.4 0.00 0.00 0.00 69 1008.7
20260509184221 31 54 1.6 6.4 0.00 0.00 0.00 69 1008.7
20260509184216 31 59 1.6 6.4 0.00 0.00 0.00 69 1008.7
20260509184116 30 23 1.6 4.8 0.00 0.00 0.00 71 1008.7
20260509184013 30 0 1.6 4.8 0.00 0.00 0.00 69 1008.7
20260509183910 31 259 1.6 4.8 0.00 0.00 0.00 68 1008.7
20260509183810 30 239 1.6 4.8 0.00 0.00 0.00 69 1008.7
20260509183718 30 250 1.6 8.0 0.00 0.00 0.00 74 1008.7
20260509183710 30 230 1.6 8.0 0.00 0.00 0.00 74 1008.7
20260509183610 30 1 1.6 8.0 0.00 0.00 0.00 74 1008.7
20260509183510 30 357 1.6 8.0 0.00 0.00 0.00 73 1008.7
20260509183410 30 331 3.2 9.7 0.00 0.00 0.00 72 1008.7
20260509183311 30 119 3.2 9.7 0.00 0.00 0.00 72 1008.7
20260509183218 30 56 3.2 11.3 0.00 0.00 0.00 71 1008.7
20260509183211 30 114 3.2 11.3 0.00 0.00 0.00 71 1008.7
20260509183111 30 315 3.2 11.3 0.00 0.00 0.00 72 1008.7
20260509183011 30 357 3.2 11.3 0.00 0.00 0.00 73 1008.8
20260509182934 30 0 3.2 11.3 0.00 0.00 0.00 71 1008.9
20260509182911 30 331 3.2 11.3 0.00 0.00 0.00 73 1008.8
20260509182820 30 336 3.2 11.3 0.00 0.00 0.00 72 1008.9
20260509182710 30 0 3.2 11.3 0.00 0.00 0.00 71 1008.9
20260509182610 30 4 3.2 11.3 0.00 0.00 0.00 75 1008.9
20260509182510 30 307 3.2 11.3 0.00 0.00 0.00 75 1008.9
20260509182410 30 251 3.2 11.3 0.00 0.00 0.00 73 1009.0
20260509182310 30 56 3.2 11.3 0.00 0.00 0.00 73 1009.0
20260509182216 30 19 3.2 8.0 0.00 0.00 0.00 73 1009.0
20260509182210 30 29 3.2 8.0 0.00 0.00 0.00 73 1009.0
20260509182110 30 76 3.2 8.0 0.00 0.00 0.00 72 1009.0
20260509182010 30 243 3.2 8.0 0.00 0.00 0.00 74 1009.1
20260509181910 30 226 1.6 4.8 0.00 0.00 0.00 73 1009.1
20260509181811 30 236 1.6 6.4 0.00 0.00 0.00 74 1009.1
20260509181716 30 222 1.6 8.0 0.00 0.00 0.00 72 1009.1
20260509181710 30 160 1.6 8.0 0.00 0.00 0.00 72 1009.1
20260509181610 29 101 1.6 8.0 0.00 0.00 0.00 75 1009.0
20260509181510 29 0 1.6 8.0 0.00 0.00 0.00 75 1009.0
20260509181407 29 91 1.6 8.0 0.00 0.00 0.00 75 1009.0
20260509181308 29 318 3.2 8.0 0.00 0.00 0.00 75 1009.0
20260509181215 29 239 3.2 9.7 0.00 0.00 0.00 75 1009.0
20260509181207 29 300 3.2 9.7 0.00 0.00 0.00 75 1009.0
20260509181105 29 357 3.2 9.7 0.00 0.00 0.00 75 1009.1
20260509181005 29 304 3.2 9.7 0.00 0.00 0.00 75 1009.1
20260509180905 29 324 3.2 9.7 0.00 0.00 0.00 75 1009.1
20260509180753 29 336 3.2 9.7 0.00 0.00 0.00 76 1009.2
20260509180715 29 0 3.2 9.7 0.00 0.00 0.00 77 1009.2
20260509180652 29 324 3.2 9.7 0.00 0.00 0.00 77 1009.2
20260509180550 29 334 3.2 9.7 0.00 0.00 0.00 75 1009.2
20260509180447 29 38 3.2 9.7 0.00 0.00 0.00 75 1009.2
20260509180347 29 31 3.2 9.7 0.00 0.00 0.00 75 1009.2
20260509180244 29 10 3.2 9.7 0.00 0.00 0.00 76 1009.3
20260509180216 29 3 3.2 9.7 0.00 0.00 0.00 79 1009.3
20260509180144 29 351 3.2 8.0 0.00 0.00 0.00 79 1009.3
20260509180044 29 340 3.2 8.0 0.00 0.00 0.00 79 1009.3
20260509175941 29 278 3.2 8.0 0.00 0.00 0.00 79 1009.3
20260509175838 29 43 3.2 8.0 0.00 0.00 0.00 79 1009.3
20260509175735 29 310 3.2 8.0 0.00 0.00 0.00 80 1009.3
20260509175715 29 0 3.2 8.0 0.00 0.00 0.00 79 1009.3
20260509175635 29 335 3.2 8.0 0.00 0.00 0.00 79 1009.3
20260509175532 29 13 3.2 8.0 0.00 0.00 0.00 80 1009.3
20260509175439 29 331 3.2 11.3 0.00 0.00 0.00 80 1009.4
20260509175432 29 1 3.2 8.0 0.00 0.00 0.00 80 1009.3
20260509175332 29 52 3.2 8.0 0.00 0.00 0.00 79 1009.3
20260509175319 29 321 3.2 8.0 0.00 0.00 0.00 80 1009.3
20260509175132 29 333 3.2 11.3 0.00 0.00 0.00 80 1009.4
20260509175032 29 357 3.2 11.3 0.00 0.00 0.00 80 1009.4
20260509174931 28 311 3.2 11.3 0.00 0.00 0.00 79 1009.4
20260509174833 28 333 3.2 11.3 0.00 0.00 0.00 80 1009.4
20260509174733 28 48 3.2 11.3 0.00 0.00 0.00 81 1009.5
20260509174713 28 321 3.2 11.3 0.00 0.00 0.00 81 1009.5
20260509174632 28 323 3.2 11.3 0.00 0.00 0.00 81 1009.5
20260509174532 28 351 3.2 11.3 0.00 0.00 0.00 80 1009.5
20260509174432 28 304 3.2 11.3 0.00 0.00 0.00 80 1009.5
20260509174333 28 318 3.2 11.3 0.00 0.00 0.00 80 1009.5
20260509174232 28 319 3.2 11.3 0.00 0.00 0.00 79 1009.5
20260509174212 28 343 3.2 9.7 0.00 0.00 0.00 82 1009.6
20260509174132 28 332 1.6 4.8 0.00 0.00 0.00 82 1009.6
20260509174030 28 14 1.6 4.8 0.00 0.00 0.00 82 1009.6
20260509173926 28 3 1.6 4.8 0.00 0.00 0.00 82 1009.6
20260509173823 28 328 1.6 4.8 0.00 0.00 0.00 81 1009.6
20260509173723 28 336 1.6 4.8 0.00 0.00 0.00 82 1009.6
20260509173712 28 344 1.6 4.8 0.00 0.00 0.00 83 1009.7
20260509173623 28 330 1.6 4.8 0.00 0.00 0.00 83 1009.7
20260509173523 28 308 1.6 4.8 0.00 0.00 0.00 82 1009.7
20260509173429 27 210 1.6 3.2 0.00 0.00 0.00 83 1009.7
20260509173424 27 266 1.6 4.8 0.00 0.00 0.00 82 1009.7
20260509173320 27 238 1.6 3.2 0.00 0.00 0.00 82 1009.7
20260509173312 27 232 1.6 3.2 0.00 0.00 0.00 83 1009.7
20260509173120 27 182 1.6 3.2 0.00 0.00 0.00 83 1009.8
20260509173020 27 0 1.6 3.2 0.00 0.00 0.00 84 1009.8
20260509172920 27 317 1.6 3.2 0.00 0.00 0.00 83 1009.8
20260509172820 27 251 1.6 3.2 0.00 0.00 0.00 83 1009.8
20260509172719 27 203 1.6 3.2 0.00 0.00 0.00 84 1009.8
20260509172706 27 215 1.6 3.2 0.00 0.00 0.00 84 1009.8
20260509172621 27 189 1.6 3.2 0.00 0.00 0.00 84 1009.8
20260509172518 27 59 1.6 3.2 0.00 0.00 0.00 84 1009.9
20260509172417 27 171 1.6 3.2 0.00 0.00 0.00 84 1009.9
20260509172314 27 59 1.6 3.2 0.00 0.00 0.00 84 1009.9
20260509172208 27 12 1.6 3.2 0.00 0.00 0.00 84 1010.0
20260509172102 27 0 1.6 3.2 0.00 0.00 0.00 84 1010.0
20260509172003 27 279 1.6 3.2 0.00 0.00 0.00 84 1010.0
20260509171903 27 223 1.6 4.8 0.00 0.00 0.00 85 1010.0
20260509171800 27 261 1.6 4.8 0.00 0.00 0.00 85 1010.0
20260509171703 27 248 1.6 4.8 0.00 0.00 0.00 84 1010.0
20260509171659 27 0 1.6 4.8 0.00 0.00 0.00 84 1010.0
20260509171600 27 334 1.6 4.8 0.00 0.00 0.00 84 1010.0
20260509171457 27 243 1.6 4.8 0.00 0.00 0.00 84 1010.0
20260509171357 27 195 1.6 4.8 0.00 0.00 0.00 84 1010.0
20260509171257 27 250 1.6 4.8 0.00 0.00 0.00 84 1010.0
20260509171201 27 179 1.6 4.8 0.00 0.00 0.00 85 1010.1
20260509171156 27 182 1.6 4.8 0.00 0.00 0.00 85 1010.1
20260509171057 27 278 1.6 4.8 0.00 0.00 0.00 85 1010.1
20260509170957 27 174 1.6 4.8 0.00 0.00 0.00 84 1010.1
20260509170921 27 205 1.6 4.8 0.00 0.00 0.00 84 1010.1
20260509170857 27 241 1.6 4.8 0.00 0.00 0.00 84 1010.1
20260509170807 27 196 1.6 4.8 0.00 0.00 0.00 84 1010.1
20260509170657 27 196 1.6 4.8 0.00 0.00 0.00 84 1010.1
20260509170557 27 283 1.6 6.4 0.00 0.00 0.00 84 1010.1
20260509170450 27 258 1.6 6.4 0.00 0.00 0.00 84 1010.1
20260509170350 27 240 1.6 6.4 0.00 0.00 0.00 84 1010.0
20260509170250 27 240 3.2 6.4 0.00 0.00 0.00 84 1010.0
20260509170158 27 132 3.2 6.4 0.00 0.00 0.00 84 1010.0
20260509170150 27 202 3.2 6.4 0.00 0.00 0.00 84 1010.0
20260509170051 27 319 3.2 6.4 0.00 0.00 0.00 83 1009.9
20260509165945 27 150 3.2 6.4 0.00 0.00 0.00 84 1009.9
20260509165845 27 255 3.2 6.4 0.00 0.00 0.00 83 1010.0
20260509165742 27 245 3.2 6.4 0.00 0.00 0.00 83 1010.0
20260509165655 27 245 1.6 6.4 0.00 0.00 0.00 83 1010.0
20260509165639 27 215 1.6 6.4 0.00 0.00 0.00 83 1010.0
20260509165539 27 231 1.6 6.4 0.00 0.00 0.00 83 1010.0
20260509165438 27 242 1.6 6.4 0.00 0.00 0.00 84 1010.1
20260509165420 27 1 1.6 6.4 0.00 0.00 0.00 85 1010.1
20260509165336 27 228 1.6 6.4 0.00 0.00 0.00 84 1010.1
20260509165301 27 222 1.6 6.4 0.00 0.00 0.00 84 1010.1
20260509165133 27 248 1.6 4.8 0.00 0.00 0.00 85 1010.1
20260509165033 27 254 1.6 4.8 0.00 0.00 0.00 85 1010.1
20260509164933 27 259 1.6 4.8 0.00 0.00 0.00 84 1010.0
20260509164833 27 202 1.6 6.4 0.00 0.00 0.00 84 1010.0
20260509164730 27 1 1.6 6.4 0.00 0.00 0.00 84 1010.0
20260509164653 27 82 1.6 6.4 0.00 0.00 0.00 84 1010.0
20260509164627 27 61 1.6 6.4 0.00 0.00 0.00 84 1010.0
20260509164524 27 210 1.6 6.4 0.00 0.00 0.00 84 1010.0
20260509164424 27 129 1.6 6.4 0.00 0.00 0.00 85 1009.9
20260509164324 27 0 3.2 6.4 0.00 0.00 0.00 86 1009.9
20260509164223 27 185 1.6 6.4 0.00 0.00 0.00 86 1009.9
20260509164152 27 81 1.6 6.4 0.00 0.00 0.00 86 1009.9
20260509164123 27 0 1.6 6.4 0.00 0.00 0.00 86 1009.9
20260509164022 27 224 3.2 6.4 0.00 0.00 0.00 86 1010.0
20260509163921 27 164 3.2 6.4 0.00 0.00 0.00 87 1010.0
20260509163821 27 343 1.6 6.4 0.00 0.00 0.00 87 1010.1
20260509163721 27 248 1.6 9.7 0.00 0.00 0.00 87 1010.2
20260509163653 27 279 3.2 9.7 0.00 0.00 0.00 87 1010.2
20260509163619 27 174 3.2 9.7 0.00 0.00 0.00 87 1010.2
20260509163519 27 236 3.2 9.7 0.00 0.00 0.00 87 1010.2
20260509163415 27 329 3.2 9.7 0.00 0.00 0.00 87 1010.2
20260509163315 27 177 3.2 9.7 0.00 0.00 0.00 87 1010.2
20260509163206 27 201 3.2 9.7 0.00 0.00 0.00 88 1010.3
20260509163153 27 294 3.2 9.7 0.00 0.00 0.00 88 1010.3
20260509163106 27 228 3.2 9.7 0.00 0.00 0.00 88 1010.3
20260509163011 27 202 3.2 9.7 0.00 0.00 0.00 88 1010.2
20260509162911 27 165 3.2 9.7 0.00 0.00 0.00 89 1010.3
20260509162906 27 171 3.2 9.7 0.00 0.00 0.00 88 1010.3
20260509162806 27 0 3.2 9.7 0.00 0.00 0.00 88 1010.3
20260509162758 27 120 3.2 9.7 0.00 0.00 0.00 89 1010.3
20260509162600 27 83 3.2 6.4 0.00 0.00 0.00 89 1010.3
20260509162457 27 132 3.2 6.4 0.00 0.00 0.00 89 1010.3
20260509162357 27 144 3.2 6.4 0.00 0.00 0.00 89 1010.3
20260509162257 27 103 3.2 6.4 0.00 0.00 0.00 89 1010.3
20260509162154 27 57 3.2 6.4 0.00 0.00 0.00 89 1010.3
20260509162054 27 307 3.2 6.4 0.00 0.00 0.00 89 1010.3
20260509161952 27 198 3.2 6.4 0.00 0.00 0.00 89 1010.3
20260509161852 27 84 3.2 6.4 0.00 0.00 0.00 89 1010.2
20260509161751 27 219 3.2 6.4 0.00 0.00 0.00 89 1010.2
20260509161658 27 171 3.2 6.4 0.00 0.00 0.00 89 1010.1
20260509161654 27 182 3.2 6.4 0.00 0.00 0.00 89 1010.1
20260509161549 27 138 1.6 6.4 0.00 0.00 0.00 89 1010.1
20260509161446 27 108 1.6 6.4 0.00 0.00 0.00 90 1010.1
20260509161346 27 337 1.6 8.0 0.00 0.00 0.00 89 1010.0
20260509161246 27 171 1.6 8.0 0.00 0.00 0.00 89 1010.0
20260509161150 27 229 1.6 8.0 0.00 0.00 0.00 89 1010.0
20260509161146 27 220 1.6 8.0 0.00 0.00 0.00 89 1010.0
20260509161045 27 117 1.6 8.0 0.00 0.00 0.00 89 1009.9
20260509160946 27 232 1.6 8.0 0.00 0.00 0.00 90 1009.9
20260509160912 26 171 1.6 8.0 0.00 0.00 0.00 90 1009.9
20260509160845 26 172 1.6 8.0 0.00 0.00 0.00 90 1009.9
20260509160756 26 305 1.6 8.0 0.00 0.00 0.00 90 1009.9
20260509160646 26 248 1.6 8.0 0.00 0.00 0.00 90 1009.9
20260509160546 26 109 1.6 8.0 0.00 0.00 0.00 90 1009.9
20260509160446 26 176 1.6 8.0 0.00 0.00 0.00 90 1009.9
20260509160346 26 15 1.6 6.4 0.00 0.00 0.00 90 1010.0
20260509160246 26 86 1.6 6.4 0.00 0.00 0.00 90 1010.0
20260509160148 26 255 1.6 6.4 0.00 0.00 0.00 90 1009.9
20260509160140 26 15 1.6 6.4 0.00 0.00 0.00 90 1009.9
20260509160040 26 197 1.6 6.4 0.00 0.00 0.00 90 1009.9
20260509155940 26 202 1.6 6.4 0.00 0.00 0.00 91 1009.9
20260509155840 26 216 1.6 6.4 0.00 0.00 0.00 91 1009.9
20260509155740 26 209 1.6 6.4 0.00 0.00 0.00 91 1009.8
20260509155647 26 108 1.6 6.4 0.00 0.00 0.00 91 1009.6
20260509155640 26 91 1.6 6.4 0.00 0.00 0.00 91 1009.6
20260509155535 26 71 3.2 6.4 0.00 0.00 0.00 91 1009.6
20260509155443 26 214 3.2 9.7 0.00 0.00 0.00 91 1009.6
20260509155335 26 235 3.2 9.7 0.00 0.00 0.00 91 1009.6
20260509155235 26 218 3.2 9.7 0.00 0.00 0.00 92 1009.6
20260509155141 26 187 3.2 9.7 0.00 0.00 0.00 92 1009.6
20260509155136 26 271 3.2 9.7 0.00 0.00 0.00 92 1009.6
20260509155036 26 109 3.2 9.7 0.00 0.00 0.00 92 1009.6
20260509154935 26 61 3.2 9.7 0.00 0.00 0.00 92 1009.6
20260509154835 26 98 3.2 9.7 0.00 0.00 0.00 92 1009.6
20260509154735 26 63 3.2 9.7 0.00 0.00 0.00 92 1009.7
20260509154638 26 157 3.2 9.7 0.00 0.00 0.00 92 1009.7
20260509154634 26 206 3.2 9.7 0.00 0.00 0.00 92 1009.7
20260509154531 26 125 3.2 9.7 0.00 0.00 0.00 92 1009.7
20260509154428 26 114 3.2 8.0 0.00 0.00 0.00 93 1009.8
20260509154328 26 88 3.2 8.0 0.00 0.00 0.00 93 1009.8
20260509154228 26 154 3.2 8.0 0.00 0.00 0.00 93 1009.9
20260509154138 26 149 3.2 8.0 0.00 0.00 0.00 93 1009.9
20260509154128 26 208 3.2 8.0 0.00 0.00 0.00 93 1009.9
20260509154028 26 158 3.2 8.0 0.00 0.00 0.00 93 1009.9
20260509153928 26 204 3.2 8.0 0.00 0.00 0.00 93 1009.9
20260509153828 25 113 3.2 8.0 0.00 0.00 0.00 93 1009.9
20260509153728 25 205 3.2 8.0 0.00 0.00 0.00 93 1010.0
20260509153639 25 202 3.2 8.0 0.00 0.00 0.00 93 1010.0
20260509153625 25 176 3.2 8.0 0.00 0.00 0.00 93 1010.0
20260509153525 25 140 3.2 8.0 0.00 0.00 0.00 94 1010.0
20260509153425 25 149 3.2 8.0 0.00 0.00 0.00 94 1010.0
20260509153326 25 89 3.2 8.0 0.00 0.00 0.00 94 1010.1
20260509153224 25 95 3.2 8.0 0.00 0.00 0.00 95 1010.1
20260509153139 25 90 3.2 6.4 0.00 0.00 0.00 95 1010.1
20260509153124 25 109 3.2 6.4 0.00 0.00 0.00 95 1010.1
20260509153011 25 67 3.2 6.4 0.00 0.00 0.00 95 1010.0
20260509152910 25 134 3.2 6.4 0.00 0.00 0.00 95 1010.0
20260509152745 25 112 3.2 6.4 0.00 0.00 0.00 95 1009.9
20260509152640 25 150 3.2 6.4 0.00 0.00 0.00 95 1009.9
20260509152540 25 216 3.2 6.4 0.00 0.00 0.00 95 1009.8
20260509152440 25 101 3.2 6.4 0.00 0.00 0.00 96 1009.8
20260509152404 25 109 3.2 6.4 0.00 0.00 0.00 96 1009.7
20260509152340 25 191 3.2 6.4 0.00 0.00 0.00 96 1009.8
20260509152251 25 162 3.2 6.4 0.00 0.00 0.00 96 1009.8
20260509152245 25 109 3.2 6.4 0.00 0.00 0.00 96 1009.7
20260509152040 25 113 3.2 6.4 0.00 0.00 0.00 97 1009.7
20260509151941 25 121 3.2 6.4 0.00 0.00 0.00 96 1009.6
20260509151840 25 167 3.2 6.4 0.00 0.00 0.00 97 1009.6
20260509151740 25 179 3.2 6.4 0.00 0.00 0.00 97 1009.6
20260509151640 25 153 3.2 6.4 0.00 0.00 0.00 97 1009.6
20260509151540 25 182 3.2 6.4 0.00 0.00 0.00 97 1009.6
20260509151440 25 105 3.2 6.4 0.00 0.00 0.00 98 1009.5
20260509151340 25 131 3.2 6.4 0.00 0.00 0.00 98 1009.5
20260509151241 25 61 3.2 6.4 0.00 0.00 0.00 98 1009.6
20260509151140 24 98 3.2 6.4 0.00 0.00 0.00 98 1009.6
20260509151025 24 87 3.2 6.4 0.00 0.00 0.00 98 1009.8
20260509150925 24 91 3.2 4.8 0.00 0.00 0.00 98 1009.8
20260509150825 24 105 1.6 3.2 0.00 0.00 0.00 98 1009.9
20260509150729 24 39 1.6 4.8 0.00 0.00 0.00 99 1010.1
20260509150624 24 103 1.6 4.8 0.00 0.00 0.00 99 1010.2
20260509150455 24 76 1.6 4.8 0.00 0.00 0.00 99 1010.2
20260509150356 24 268 3.2 4.8 0.00 0.00 0.00 99 1010.3
20260509150257 24 255 3.2 4.8 0.00 0.00 0.00 99 1010.3
20260509150155 24 233 3.2 4.8 0.00 0.00 0.00 99 1010.3
20260509150055 24 229 3.2 4.8 0.00 0.00 0.00 99 1010.2
20260509145955 24 270 1.6 4.8 0.00 0.00 0.00 99 1009.8
20260509145855 24 254 1.6 4.8 0.00 0.00 0.00 99 1009.8
20260509145755 24 84 1.6 4.8 0.00 0.00 0.00 99 1009.7
20260509145655 24 115 1.6 4.8 0.00 0.00 0.00 99 1009.5
20260509145555 24 104 1.6 4.8 0.00 0.00 0.00 99 1009.5
20260509145455 24 93 1.6 4.8 0.00 0.00 0.00 99 1009.5
20260509145355 24 63 1.6 4.8 0.00 0.00 0.00 99 1009.5
20260509145255 24 0 1.6 4.8 0.00 0.00 0.00 99 1009.6
20260509145155 24 251 1.6 4.8 0.00 0.00 0.00 99 1009.6
20260509145055 24 329 1.6 4.8 0.00 0.00 0.00 99 1009.6
20260509144956 24 247 1.6 4.8 0.00 0.00 0.00 99 1009.5
20260509144855 24 209 1.6 4.8 0.00 0.00 0.00 99 1009.5
20260509144756 24 85 1.6 4.8 0.00 0.00 0.00 99 1009.5
20260509144656 24 256 1.6 4.8 0.00 0.00 0.00 99 1009.5
20260509144556 24 147 1.6 3.2 0.00 0.00 0.00 99 1009.5
20260509144426 24 124 1.6 3.2 0.00 0.00 0.00 99 1009.7
20260509144326 24 73 0.0 3.2 0.00 0.00 0.00 99 1009.8
20260509144227 24 0 1.6 4.8 0.00 0.00 0.00 99 1009.9
20260509144124 24 257 1.6 4.8 0.00 0.00 0.00 99 1010.0
20260509144011 24 257 1.6 4.8 0.00 0.00 0.00 99 1010.0
20260509143856 24 185 1.6 4.8 0.00 0.00 0.00 99 1010.0
20260509143756 24 263 1.6 4.8 0.00 0.00 0.00 99 1010.0
20260509143656 24 143 1.6 4.8 0.00 0.00 0.00 99 1010.0
20260509143541 24 205 1.6 4.8 0.00 0.00 0.00 99 1010.0
20260509143523 24 0 1.6 4.8 0.00 0.00 0.00 99 1009.9
20260509143441 24 0 1.6 4.8 0.00 0.00 0.00 99 1009.9
20260509143326 24 168 1.6 4.8 0.00 0.00 0.00 99 1009.9
20260509143232 24 67 1.6 3.2 0.00 0.00 0.00 99 1010.0
20260509143224 24 111 1.6 4.8 0.00 0.00 0.00 99 1009.9
20260509143124 24 123 1.6 3.2 0.00 0.00 0.00 99 1009.9
20260509143115 24 67 1.6 3.2 0.00 0.00 0.00 99 1010.0
20260509142924 24 0 1.6 3.2 0.00 0.00 0.00 99 1010.0
20260509142825 24 91 1.6 3.2 0.00 0.00 0.00 99 1009.9